                ,  0.485,  0.585,  0.685,  0.785,  0.885,  0.985,  1.085,  1.185,  1.285,  1.385,  1.485,  1.585,  1.685,  1.785,  1.885,  1.985,  2.085,  2.185,  2.285,  2.385,  2.485,  2.585,  2.685,  2.785,  2.885,  2.985,  3.085,  3.185,  3.285,  3.385,  3.485,  3.585,  3.685,  3.785,  3.885,  3.985,  4.085,  4.185,  4.285,  4.385,  4.485,  4.585,  4.685,  4.785,  4.885,  4.985,  5.085,  5.185,  5.285,  5.385,  5.485,  5.585,  5.685,  5.785,  5.885,  5.985,  6.085,  6.185,  6.285,  6.385,  6.485,  6.585,  6.685,  6.785,  6.885,  6.985,  7.085,  7.185,  7.285,  7.385,  7.485,  7.585,  7.685,  7.785,  7.885,  7.985,  8.085,  8.185,  8.285,  8.385
2006/06/28 00:00,    0.0,   -0.0,   -0.2,    0.1,   -0.1,   -0.1,  999.0,  999.0,   -0.0,    0.0,    0.1,    0.1,    0.1,    0.1,    0.1,    0.0,    0.0,    0.1,    0.1,    0.1,    0.0,    0.1,    0.0,   -0.1,   -0.0,    0.1,    0.0,    0.1,  999.0,   -0.0,    0.1,  999.0,    0.5,    0.1,  999.0,    0.0,    0.4,  999.0,  999.0,    0.4,  999.0,  999.0,    0.5,  999.0,    0.5,    0.5,  999.0,    0.9,  999.0,  999.0,  999.0,  999.0,    0.4,  999.0,  999.0,  999.0,  999.0,  999.0,  999.0,  999.0,  999.0,    0.2,    0.2,    0.1,   -0.6,   -0.8,   -0.7,   -0.8,   -0.8,   -0.7,   -0.8,   -0.7,   -0.6,   -0.6,   -0.6,   -0.6,   -0.6,   -0.7,   -0.5,   -0.5
2006/06/28 00:10,    0.0,   -0.0,    0.0,   -0.1,   -0.1,   -0.1,   -0.0,   -0.0,    0.1,    0.0,    0.1,    0.1,    0.1,    0.1,    0.1,    0.1,    0.2,    0.2,    0.1,    0.2,    0.1,    0.1,    0.1,    0.0,    0.1,   -0.0,    0.1,   -0.0,   -0.0,   -0.0,    0.1,   -0.0,    0.1,   -0.0,  999.0,  999.0,    0.3,    0.1,    0.4,    0.3,    0.3,    0.3,    0.3,    0.3,    0.2,    0.2,  999.0,    0.3,  999.0,  999.0,  999.0,    0.3,    0.3,  999.0,  999.0,  999.0,  999.0,  999.0,  999.0,    0.0,    0.4,    0.2,    0.1,   -0.1,   -0.7,   -0.6,   -0.6,   -0.6,   -0.7,   -0.6,   -0.7,   -0.8,   -0.7,   -0.7,   -0.7,   -0.7,   -0.7,   -0.6,   -0.6,   -0.6
2006/06/28 00:20,   -0.0,    0.0,   -0.1,   -0.2,   -0.2,   -0.2,   -0.1,   -0.1,   -0.1,   -0.0,   -0.0,    0.0,    0.1,    0.1,    0.2,    0.2,    0.2,    0.2,    0.3,    0.3,    0.3,    0.2,    0.0,    0.1,    0.1,    0.2,    0.2,    0.4,  999.0,    0.1,  999.0,    0.2,    0.3,  999.0,  999.0,    0.5,    0.5,    0.3,    0.4,    0.4,    0.4,    0.4,    0.3,    0.4,    0.3,    0.5,  999.0,  999.0,  999.0,  999.0,  999.0,  999.0,    0.3,  999.0,  999.0,  999.0,  999.0,  999.0,  999.0,  999.0,    0.3,  999.0,   -0.1,   -0.1,   -0.8,   -0.9,   -0.8,   -0.8,   -0.6,   -0.8,   -0.8,   -0.8,   -0.8,   -0.8,   -0.8,   -0.7,   -0.7,   -0.5,   -0.5,   -0.3
2006/06/28 00:30,    0.0,   -0.0,   -0.1,   -0.1,   -0.2,   -0.1,   -0.2,   -0.2,   -0.2,   -0.1,   -0.1,   -0.1,   -0.2,   -0.1,   -0.0,   -0.0,    0.0,    0.1,    0.1,    0.1,    0.1,    0.1,    0.0,   -0.0,    0.0,    0.1,    0.1,    0.1,    0.2,   -0.0,   -0.0,   -0.0,    0.1,    0.1,  999.0,  999.0,    0.3,    0.6,    0.4,    0.4,    0.5,    0.4,    0.4,    0.3,  999.0,  999.0,  999.0,  999.0,  999.0,  999.0,  999.0,  999.0,    0.2,  999.0,  999.0,  999.0,  999.0,  999.0,  999.0,    0.1,   -0.1,   -0.3,   -0.6,   -0.9,   -0.9,   -0.9,   -0.9,   -0.9,   -0.9,   -1.0,   -1.2,   -1.1,   -1.0,   -1.1,   -1.1,   -1.0,   -0.9,  999.0,  999.0,  999.0
2006/06/28 00:40,   -0.0,   -0.0,   -0.1,   -0.1,   -0.1,   -0.2,   -0.1,   -0.1,   -0.1,   -0.1,   -0.1,   -0.1,   -0.1,   -0.1,   -0.0,   -0.0,   -0.0,   -0.0,   -0.0,   -0.0,   -0.0,   -0.0,    0.0,    0.0,   -0.0,    0.0,    0.1,    0.1,    0.1,   -0.0,    0.0,    0.0,   -0.1,   -0.0,  999.0,  999.0,    0.1,    0.1,    0.1,    0.1,    0.2,    0.1,    0.3,    0.1,    0.2,  999.0,  999.0,  999.0,  999.0,  999.0,  999.0,    0.3,    0.3,  999.0,  999.0,  999.0,  999.0,    0.1,    0.2,    0.2,  999.0,   -0.0,   -0.5,   -0.9,   -0.9,   -0.8,   -0.8,   -1.0,   -1.1,   -1.0,   -1.0,   -0.9,   -0.9,   -0.9,   -0.7,   -0.9,  999.0,  999.0,  999.0,  999.0
2006/06/28 00:50,    0.0,    0.0,   -0.1,   -0.1,   -0.1,   -0.0,    0.0,    0.0,    0.0,    0.1,    0.0,    0.0,    0.1,    0.1,    0.1,    0.2,    0.3,    0.2,    0.3,    0.2,    0.3,    0.2,    0.2,    0.1,    0.0,    0.1,    0.2,    0.0,   -0.0,    0.0,    0.1,   -0.0,    0.0,    0.0,  999.0,  999.0,    0.1,    0.1,    0.1,    0.2,    0.0,   -0.0,    0.1,  999.0,  999.0,  999.0,  999.0,  999.0,  999.0,  999.0,   -0.1,    0.0,  999.0,  999.0,  999.0,  999.0,   -0.2,   -0.2,   -0.1,   -0.5,   -0.9,   -1.0,   -1.0,   -1.1,   -1.0,   -1.0,   -1.0,   -1.0,   -1.0,   -1.1,   -1.1,   -1.1,   -1.0,   -1.0,   -1.0,   -1.1,  999.0,  999.0,  999.0,  999.0
2006/06/28 01:00,    0.0,    0.0,   -0.2,   -0.2,   -0.2,   -0.1,   -0.1,   -0.1,   -0.1,   -0.0,    0.0,    0.1,    0.2,    0.1,    0.2,    0.1,    0.3,    0.3,    0.2,    0.3,    0.2,    0.2,    0.1,    0.1,    0.0,    0.1,    0.3,    0.1,    0.0,   -0.1,    0.2,    0.0,    0.0,    0.0,  999.0,  999.0,  999.0,  999.0,    0.4,    0.3,    0.4,    0.3,  999.0,  999.0,    0.2,  999.0,  999.0,  999.0,  999.0,   -0.0,    0.3,  999.0,  999.0,  999.0,  999.0,  999.0,    0.1,    0.1,    0.0,    0.1,   -0.5,   -0.9,   -1.0,   -1.0,   -1.0,   -1.0,   -1.0,   -1.1,   -1.1,   -1.2,   -1.2,   -1.1,   -1.1,   -1.1,   -1.1,   -0.9,   -1.0,   -0.9,  999.0,   -1.0
2006/06/28 01:10,    0.0,  999.0,   -0.1,   -0.1,   -0.2,   -0.1,   -0.1,   -0.1,   -0.1,   -0.1,  999.0,   -0.0,    0.1,    0.1,    0.1,    0.1,    0.1,    0.2,    0.2,    0.1,    0.2,    0.1,    0.1,    0.1,    0.0,    0.1,    0.3,    0.4,    0.1,  999.0,    0.2,    0.0,    0.1,    0.1,  999.0,  999.0,  999.0,  999.0,    0.2,    0.0,    0.1,    0.1,  999.0,   -0.0,    0.3,  999.0,  999.0,  999.0,  999.0,    0.2,    0.2,  999.0,  999.0,  999.0,  999.0,    0.1,    0.1,  999.0,   -0.0,   -0.4,   -0.8,   -1.0,   -1.0,   -1.0,   -1.0,   -1.0,   -1.0,   -1.1,   -1.1,   -1.0,   -1.0,   -1.0,   -1.0,   -0.9,   -0.8,   -0.8,   -0.8,   -0.8,   -0.8,   -0.9
2006/06/28 01:20,    0.0,   -0.0,   -0.1,   -0.1,   -0.1,    0.0,   -0.0,    0.0,    0.0,    0.0,    0.0,    0.0,    0.0,    0.0,    0.1,    0.0,    0.1,    0.1,    0.1,    0.1,    0.1,    0.1,    0.0,    0.1,    0.0,    0.1,    0.2,    0.1,    0.2,  999.0,    0.1,  999.0,   -0.0,    0.0,    0.1,  999.0,  999.0,    0.3,    0.2,    0.3,  999.0,    0.3,  999.0,    0.3,  999.0,  999.0,  999.0,  999.0,    0.4,    0.3,  999.0,  999.0,  999.0,  999.0,  999.0,    0.2,  999.0,   -0.3,   -0.7,   -0.9,   -1.1,   -0.9,   -1.0,   -0.9,   -0.9,   -0.8,   -0.8,   -0.9,   -0.8,   -0.8,   -0.9,   -0.8,   -0.8,   -0.8,   -0.8,   -0.7,   -0.6,   -0.6,   -0.5,   -0.5
2006/06/28 01:30,    0.0,   -0.0,   -0.1,    0.0,    0.0,    0.0,    0.0,    0.0,    0.1,    0.1,    0.1,    0.1,    0.1,    0.0,    0.1,    0.1,    0.1,    0.2,    0.2,    0.1,    0.1,    0.2,    0.1,    0.1,    0.1,    0.1,    0.2,    0.2,    0.1,    0.2,    0.0,    0.0,    0.0,    0.0,  999.0,  999.0,  999.0,    0.1,    0.0,    0.1,  999.0,    0.3,  999.0,  999.0,  999.0,  999.0,  999.0,  999.0,  999.0,    0.4,    0.5,  999.0,  999.0,  999.0,  999.0,    0.2,   -0.0,   -0.2,   -0.6,   -0.9,   -1.0,   -1.0,   -1.0,   -0.9,   -0.9,   -0.9,   -0.9,   -0.9,   -0.8,   -0.8,   -0.9,   -0.8,   -0.8,   -0.8,   -0.8,   -0.7,   -0.6,   -0.5,   -0.2,   -0.6
2006/06/28 01:40,   -0.0,    0.0,    0.1,    0.1,    0.1,    0.0,    0.1,   -0.0,    0.1,    0.1,    0.1,    0.1,    0.1,    0.1,    0.2,    0.2,    0.2,    0.3,    0.4,    0.1,    0.3,    0.4,    0.2,    0.1,    0.1,    0.1,    0.3,    0.2,    0.1,    0.2,    0.1,  999.0,    0.2,  999.0,  999.0,  999.0,  999.0,    0.5,    0.4,    0.4,  999.0,  999.0,  999.0,  999.0,  999.0,    0.4,  999.0,  999.0,    0.3,    0.4,    0.4,  999.0,  999.0,  999.0,   -0.5,   -0.5,   -0.6,   -0.9,   -0.9,   -0.9,   -0.9,   -0.8,   -0.7,   -0.7,   -0.6,   -0.6,   -0.6,   -0.7,   -0.9,   -1.0,  999.0,   -0.9,   -0.9,   -0.8,   -0.9,   -0.8,   -0.8,   -0.8,   -0.6,   -0.3
2006/06/28 01:50,   -0.0,    0.0,    0.2,    0.2,    0.2,    0.1,   -0.0,   -0.0,   -0.0,   -0.0,    0.0,    0.0,    0.0,   -0.0,    0.0,    0.1,    0.1,    0.2,    0.3,    0.2,    0.3,    0.3,    0.2,    0.1,    0.1,    0.3,    0.4,    0.6,  999.0,    0.3,  999.0,  999.0,    0.1,  999.0,  999.0,  999.0,  999.0,    0.4,  999.0,    0.3,    0.3,  999.0,  999.0,  999.0,  999.0,  999.0,  999.0,    0.5,    0.4,    0.4,  999.0,    0.3,    0.2,   -0.4,   -0.6,   -0.7,   -0.8,   -0.7,   -0.7,   -0.6,   -0.7,   -0.5,   -0.5,   -0.4,   -0.4,   -0.5,   -0.6,   -0.6,   -0.7,   -0.7,   -0.7,   -0.7,  999.0,  999.0,  999.0,  999.0,  999.0,  999.0,  999.0,  999.0
2006/06/28 02:00,   -0.0,    0.0,    0.1,    0.1,    0.0,   -0.0,   -0.0,   -0.1,   -0.1,   -0.0,    0.0,    0.0,    0.0,    0.0,    0.0,    0.1,    0.1,    0.1,    0.2,    0.2,    0.2,    0.3,    0.3,    0.1,    0.0,    0.3,    0.4,    0.4,    0.3,  999.0,    0.2,  999.0,    0.1,    0.0,  999.0,  999.0,  999.0,   -0.0,  999.0,    0.2,    0.2,  999.0,    0.3,  999.0,  999.0,   -0.2,  999.0,    0.0,    0.2,    0.1,    0.3,    0.3,    0.2,    0.1,   -0.4,   -0.8,   -0.8,   -0.7,   -0.8,   -0.8,   -0.8,   -0.7,   -0.7,   -0.6,   -0.6,   -0.6,   -0.7,   -0.7,   -0.7,   -0.7,   -0.7,   -0.6,   -0.7,   -0.6,   -0.6,   -0.6,   -0.4,   -0.6,   -0.5,   -0.6
2006/06/28 02:10,    0.0,  999.0,    0.1,    0.1,    0.1,    0.1,    0.1,    0.1,    0.1,    0.1,    0.1,    0.2,    0.1,    0.1,    0.1,    0.1,    0.1,    0.2,    0.2,    0.2,    0.2,    0.1,    0.1,    0.1,    0.0,    0.2,    0.4,    0.2,    0.2,    0.1,    0.2,  999.0,   -0.1,    0.2,    0.3,    0.4,  999.0,  999.0,    0.5,  999.0,    0.1,  999.0,  999.0,    0.2,    0.3,    0.1,  999.0,    0.1,    0.1,    0.2,    0.1,    0.3,    0.4,    0.2,   -0.0,   -0.6,   -0.8,   -0.9,   -0.9,   -0.9,   -0.9,   -0.8,   -0.8,   -0.7,   -0.7,   -0.7,   -0.7,   -0.7,   -0.7,   -0.7,   -0.7,   -0.7,   -0.7,   -0.7,   -0.8,   -0.8,   -0.8,   -0.9,   -0.8,   -0.8
2006/06/28 02:20,    0.0,    0.0,    0.2,    0.3,    0.2,    0.1,   -0.0,   -0.0,   -0.0,   -0.0,    0.0,    0.0,   -0.0,   -0.0,   -0.0,    0.0,    0.0,    0.0,    0.1,    0.1,    0.1,    0.0,    0.1,    0.2,   -0.0,    0.2,    0.3,    0.2,    0.3,    0.2,    0.3,  999.0,    0.0,  999.0,    0.3,  999.0,  999.0,  999.0,    0.4,    0.3,    0.3,  999.0,  999.0,    0.2,    0.2,  999.0,    0.3,    0.1,   -0.0,  999.0,  999.0,  999.0,  999.0,    0.0,   -0.6,   -1.0,   -0.9,   -1.1,   -1.1,   -1.1,   -1.2,   -1.0,   -1.0,   -0.9,   -0.8,   -0.7,   -0.6,   -0.7,   -0.7,   -0.7,   -0.7,   -0.7,   -0.6,   -0.5,   -0.6,   -0.4,   -0.6,  999.0,  999.0,  999.0
2006/06/28 02:30,    0.0,    0.1,    0.2,    0.2,    0.2,    0.2,    0.1,    0.1,    0.1,    0.1,    0.2,    0.1,    0.2,    0.1,    0.2,    0.2,    0.3,    0.2,    0.2,    0.4,    0.2,   -0.0,    0.1,    0.1,    0.0,    0.1,    0.4,    0.4,    0.6,    0.3,    0.5,   -0.0,    0.1,    0.0,    0.3,    0.4,  999.0,  999.0,  999.0,    0.3,    0.4,  999.0,  999.0,    0.5,  999.0,  999.0,  999.0,    0.4,  999.0,  999.0,  999.0,  999.0,    0.2,    0.2,   -0.4,   -0.7,   -0.8,   -0.8,   -0.9,   -0.9,   -1.0,   -1.0,   -0.9,   -0.8,   -0.7,   -0.7,   -0.6,   -0.6,   -0.7,   -0.6,   -0.6,   -0.6,   -0.7,   -0.7,   -0.6,   -0.8,   -0.7,   -0.8,   -0.6,  999.0
2006/06/28 02:40,    0.0,    0.0,    0.2,    0.4,    0.3,    0.3,    0.2,    0.2,    0.1,    0.2,    0.1,    0.1,    0.1,    0.2,    0.1,    0.1,    0.1,    0.1,    0.1,    0.2,    0.1,    0.0,    0.1,   -0.0,    0.0,    0.1,    0.3,    0.2,    0.3,    0.3,    0.2,    0.2,    0.0,    0.0,    0.1,    0.5,  999.0,  999.0,  999.0,  999.0,    0.4,  999.0,  999.0,    0.5,    0.2,  999.0,    0.3,    0.3,   -0.1,   -0.0,    0.2,    0.3,    0.3,   -0.0,   -0.4,   -0.7,   -0.8,   -0.8,   -0.8,   -0.7,   -0.6,   -0.9,   -0.7,   -0.6,   -0.6,   -0.6,   -0.7,   -0.7,   -0.7,   -0.8,   -0.8,   -0.7,   -0.7,   -0.7,   -0.6,   -0.7,   -0.7,   -0.7,   -0.7,   -0.6
2006/06/28 02:50,    0.0,    0.1,    0.4,    0.4,    0.2,    0.4,    0.3,    0.3,    0.3,    0.2,    0.2,    0.2,    0.2,    0.1,    0.1,    0.1,    0.2,    0.1,    0.2,    0.2,    0.1,    0.2,    0.1,    0.1,  999.0,    0.1,    0.3,    0.2,    0.3,    0.3,    0.2,    0.3,   -0.0,    0.1,   -0.0,  999.0,    0.1,  999.0,  999.0,  999.0,  999.0,  999.0,  999.0,  999.0,  999.0,    0.2,    0.1,    0.1,   -0.0,   -0.1,   -0.0,    0.1,    0.3,    0.0,   -0.5,   -0.9,   -0.9,   -0.8,   -0.8,   -0.7,   -0.7,   -0.7,   -0.5,   -0.4,   -0.4,   -0.3,   -0.5,   -0.5,   -0.6,   -0.7,   -0.8,   -0.8,   -0.7,   -0.7,   -0.7,   -0.7,   -0.7,   -0.7,   -0.6,   -0.5
2006/06/28 03:00,    0.1,    0.0,    0.3,    0.2,    0.3,    0.3,    0.1,    0.1,    0.1,    0.0,    0.1,    0.1,    0.1,    0.0,   -0.0,   -0.0,   -0.0,   -0.1,   -0.1,   -0.0,    0.0,    0.0,    0.0,    0.0,  999.0,    0.0,    0.3,    0.2,    0.2,    0.2,    0.4,    0.2,    0.1,    0.0,   -0.0,  999.0,    0.2,  999.0,  999.0,  999.0,  999.0,  999.0,  999.0,  999.0,  999.0,    0.1,    0.2,    0.0,    0.0,    0.1,   -0.1,    0.0,   -0.3,   -0.6,   -0.9,   -1.1,   -1.2,   -1.0,   -1.0,   -0.9,   -0.8,   -0.7,   -0.7,   -0.7,   -0.7,   -0.7,   -0.7,   -0.8,   -0.9,   -0.9,   -1.0,   -0.9,   -1.0,   -1.0,   -0.9,   -0.9,   -0.8,   -0.8,   -0.6,   -0.6
2006/06/28 03:10,    0.0,    0.1,    0.2,    0.1,    0.2,    0.2,    0.2,    0.2,    0.2,    0.0,    0.2,   -0.1,    0.0,   -0.1,   -0.0,   -0.1,    0.0,   -0.1,   -0.1,   -0.0,   -0.0,   -0.0,   -0.0,   -0.0,    0.0,   -0.0,    0.0,    0.0,   -0.0,   -0.0,   -0.1,   -0.1,   -0.0,    0.0,    0.0,   -0.1,   -0.1,  999.0,  999.0,  999.0,  999.0,  999.0,  999.0,  999.0,  999.0,    0.1,    0.2,    0.1,   -0.5,   -0.6,   -0.9,   -1.1,   -1.1,   -1.1,   -1.0,   -1.1,   -1.0,   -0.9,   -0.7,   -0.7,   -0.7,   -0.6,   -0.6,   -0.6,   -0.5,   -0.5,   -0.5,   -0.6,   -0.6,   -0.6,   -0.7,   -0.7,   -0.7,   -0.7,   -0.7,   -0.7,   -0.7,   -0.6,   -0.6,   -0.6
2006/06/28 03:20,    0.1,    0.0,    0.1,    0.2,    0.1,    0.1,    0.1,    0.1,    0.2,    0.1,    0.1,    0.1,    0.1,    0.0,    0.1,    0.1,    0.1,    0.2,    0.2,    0.1,    0.1,    0.1,    0.0,   -0.0,   -0.0,    0.1,    0.1,    0.1,    0.1,    0.1,    0.1,    0.1,    0.1,    0.1,   -0.0,    0.1,    0.1,  999.0,  999.0,  999.0,  999.0,  999.0,  999.0,   -0.0,   -0.1,    0.0,   -0.1,   -0.6,   -0.5,   -1.1,   -1.2,   -1.1,   -0.9,   -0.8,   -0.7,   -0.6,   -0.6,   -0.6,   -0.6,   -0.7,   -0.7,   -0.7,   -0.7,   -0.6,   -0.6,   -0.6,   -0.7,   -0.7,   -0.7,   -0.7,   -0.7,   -0.6,   -0.7,   -0.6,   -0.6,   -0.6,   -0.5,   -0.6,   -0.5,   -0.5
2006/06/28 03:30,    0.0,    0.0,    0.0,    0.0,    0.0,   -0.0,    0.1,    0.1,    0.1,    0.1,    0.1,    0.2,    0.2,    0.1,    0.1,    0.0,    0.1,    0.0,    0.0,    0.0,    0.0,   -0.0,    0.0,   -0.0,   -0.0,    0.0,   -0.0,    0.0,    0.1,   -0.0,    0.0,    0.1,    0.1,   -0.0,    0.0,  999.0,  999.0,  999.0,  999.0,  999.0,  999.0,    0.3,  999.0,    0.2,    0.1,    0.0,   -0.1,   -0.8,   -1.1,   -1.1,   -1.2,   -1.2,   -1.0,   -1.0,   -0.9,   -1.0,   -1.0,   -1.0,   -1.1,   -1.1,   -1.0,   -1.0,   -0.8,   -0.8,   -0.7,   -0.9,   -0.8,   -0.8,   -0.9,   -0.8,   -0.9,   -0.9,   -0.9,   -0.8,   -0.8,   -0.8,   -0.8,   -0.8,   -0.8,   -0.8
2006/06/28 03:40,    0.0,    0.0,   -0.1,   -0.1,   -0.1,   -0.1,  999.0,  999.0,   -0.1,   -0.1,   -0.1,   -0.2,   -0.1,   -0.2,   -0.2,   -0.2,   -0.2,   -0.2,   -0.1,   -0.0,   -0.1,   -0.0,    0.0,    0.0,  999.0,   -0.0,    0.1,    0.1,    0.1,    0.1,    0.1,    0.2,    0.0,    0.0,    0.0,    0.1,  999.0,  999.0,  999.0,  999.0,  999.0,    0.3,    0.4,    0.2,    0.4,    0.3,    0.0,   -0.3,   -0.7,   -1.1,   -0.9,   -0.9,   -0.9,   -0.7,   -0.8,   -0.8,   -0.9,   -0.9,   -1.0,   -0.9,   -0.8,   -0.9,   -0.9,   -0.9,   -1.0,   -1.0,   -1.0,   -1.0,   -1.0,   -1.0,   -1.0,   -1.0,   -1.0,   -0.9,   -1.0,   -0.9,   -0.9,   -0.9,   -0.8,   -0.8
2006/06/28 03:50,    0.0,    0.0,   -0.0,   -0.0,   -0.0,   -0.0,  999.0,  999.0,    0.2,    0.1,    0.1,    0.3,    0.1,    0.2,    0.3,    0.2,    0.2,    0.2,    0.2,    0.2,    0.2,    0.3,    0.1,    0.0,    0.0,    0.1,    0.1,    0.3,    0.4,    0.1,    0.2,    0.3,    0.2,    0.1,   -0.1,    0.0,  999.0,  999.0,  999.0,    0.5,  999.0,    0.3,    0.3,    0.3,    0.4,    0.4,    0.5,    0.3,   -0.6,   -0.8,   -0.6,   -1.0,   -0.7,   -0.8,   -0.8,   -0.8,   -0.9,   -0.7,   -0.9,   -0.6,   -0.4,   -0.8,   -0.8,   -0.7,   -0.8,   -0.9,   -1.0,   -1.0,   -1.0,   -1.0,   -1.0,   -0.9,   -1.0,   -1.0,   -1.0,   -1.0,   -1.0,   -1.0,   -0.8,   -0.8
2006/06/28 04:00,    0.0,    0.0,    0.3,    0.2,    0.1,    0.1,    0.1,  999.0,    0.2,    0.2,    0.2,    0.2,    0.1,    0.1,    0.0,    0.0,    0.0,    0.0,    0.1,    0.0,    0.0,    0.0,    0.0,    0.0,    0.0,    0.0,    0.0,    0.1,    0.0,    0.0,    0.0,    0.0,    0.1,    0.0,    0.0,    0.0,  999.0,  999.0,  999.0,  999.0,  999.0,    0.2,  999.0,    0.1,    0.4,    0.3,    0.3,    0.3,    0.1,   -0.4,   -0.8,   -0.7,   -0.9,   -0.9,   -1.0,   -0.9,   -0.9,   -0.9,   -0.9,   -1.0,   -0.9,   -0.9,   -0.9,   -0.7,   -0.7,   -0.7,   -0.8,   -0.8,   -0.8,   -0.8,   -0.9,   -1.0,   -1.0,   -1.0,   -1.0,   -1.0,   -0.9,   -1.0,   -1.0,   -0.9
2006/06/28 04:10,    0.0,   -0.0,    0.0,   -0.0,    0.0,   -0.1,   -0.0,   -0.0,   -0.0,   -0.0,   -0.0,   -0.0,   -0.0,   -0.0,   -0.0,   -0.0,    0.0,    0.0,   -0.0,   -0.0,   -0.0,    0.0,    0.0,    0.0,  999.0,    0.0,    0.1,    0.0,    0.1,    0.0,   -0.0,   -0.0,    0.0,   -0.0,    0.0,    0.0,   -0.1,  999.0,  999.0,  999.0,    0.1,    0.0,   -0.0,   -0.1,   -0.1,    0.1,   -0.0,    0.0,   -0.0,  999.0,  999.0,  999.0,   -0.7,   -0.8,   -0.9,   -1.0,   -1.0,   -1.0,   -0.9,   -0.8,   -0.8,   -0.7,   -0.6,   -0.5,   -0.5,   -0.6,   -0.7,   -0.8,   -0.8,   -0.8,   -0.9,   -0.9,   -1.0,   -1.0,   -0.9,   -0.9,   -0.8,   -0.9,   -0.9,   -0.9
2006/06/28 04:20,   -0.0,   -0.0,    0.0,    0.1,    0.1,   -0.0,  999.0,    0.0,    0.1,    0.2,    0.2,    0.3,    0.3,    0.2,    0.3,    0.3,    0.3,    0.2,    0.3,    0.2,    0.2,    0.2,    0.1,    0.0,    0.0,    0.0,    0.1,    0.1,    0.1,    0.1,    0.0,    0.1,    0.0,    0.0,   -0.0,   -0.0,  999.0,  999.0,  999.0,  999.0,    0.2,    0.3,    0.2,    0.1,    0.0,    0.1,   -0.1,   -0.0,   -0.1,  999.0,  999.0,  999.0,  999.0,  999.0,  999.0,   -0.9,   -0.9,   -0.9,   -0.9,   -0.9,   -0.9,   -0.8,   -0.8,   -0.7,   -0.6,   -0.7,   -0.8,   -0.9,   -0.9,   -0.9,   -0.9,   -1.0,   -1.0,   -1.0,   -1.0,   -0.9,   -1.0,   -1.1,   -1.0,   -1.0
2006/06/28 04:30,   -0.0,    0.0,    0.1,   -0.0,   -0.0,    0.0,   -0.0,    0.1,    0.1,    0.1,    0.1,    0.1,    0.1,    0.2,    0.1,    0.1,    0.2,    0.1,    0.2,    0.1,    0.1,    0.1,    0.1,    0.0,    0.0,    0.0,    0.1,    0.1,    0.0,    0.0,   -0.0,    0.0,    0.0,    0.2,    0.1,    0.1,  999.0,  999.0,  999.0,  999.0,    0.3,    0.3,    0.3,    0.2,    0.2,    0.3,    0.1,    0.2,    0.0,  999.0,   -0.4,   -0.7,   -0.8,   -1.0,   -1.1,   -1.1,   -1.2,   -1.2,   -1.1,   -1.0,   -0.9,   -0.9,   -1.0,   -1.0,   -1.0,   -1.1,   -1.1,   -1.2,   -1.3,   -1.4,   -1.4,   -1.4,   -1.3,   -1.4,   -1.3,   -1.2,   -1.1,   -1.1,   -1.1,   -1.0
2006/06/28 04:40,    0.0,    0.0,    0.0,   -0.1,   -0.1,   -0.0,    0.1,    0.1,    0.2,    0.2,    0.2,    0.2,    0.2,    0.1,    0.1,    0.0,    0.0,    0.1,    0.1,    0.1,    0.1,    0.1,   -0.0,    0.0,    0.0,    0.0,    0.1,    0.1,    0.1,    0.0,   -0.0,   -0.0,    0.0,    0.0,    0.0,  999.0,  999.0,  999.0,  999.0,  999.0,  999.0,    0.0,    0.0,    0.1,    0.1,    0.1,    0.1,    0.2,  999.0,  999.0,  999.0,  999.0,  999.0,   -1.0,   -1.0,   -1.0,   -1.2,   -1.2,   -1.3,   -1.3,   -1.3,   -1.3,   -1.2,   -1.2,   -1.1,   -1.2,   -1.2,   -1.2,   -1.2,   -1.3,   -1.3,   -1.3,   -1.3,   -1.2,   -1.2,   -1.2,   -1.1,   -1.1,   -1.1,   -1.1
2006/06/28 04:50,   -0.0,   -0.0,    0.0,    0.0,    0.0,   -0.1,   -0.0,    0.0,    0.0,    0.1,   -0.0,   -0.0,   -0.1,   -0.1,   -0.0,   -0.0,   -0.0,    0.0,    0.0,   -0.0,   -0.0,    0.0,    0.0,   -0.0,   -0.0,    0.0,    0.1,    0.1,    0.2,    0.1,    0.1,    0.1,    0.0,    0.0,    0.0,    0.2,  999.0,  999.0,  999.0,  999.0,  999.0,    0.2,    0.1,    0.3,    0.2,    0.4,    0.5,    0.2,  999.0,  999.0,  999.0,  999.0,  999.0,  999.0,   -1.0,   -0.8,   -0.9,   -1.1,   -1.2,   -1.2,   -1.2,   -1.2,   -1.1,   -1.1,   -1.0,   -1.0,   -1.0,   -1.0,   -1.0,   -1.0,   -1.0,   -1.1,   -1.1,   -1.0,   -0.9,   -0.9,   -0.8,   -0.9,   -0.8,   -0.8
2006/06/28 05:00,    0.0,   -0.0,    0.1,    0.1,    0.2,    0.1,    0.0,   -0.0,    0.0,    0.0,    0.0,    0.0,    0.0,   -0.0,   -0.1,   -0.1,   -0.1,   -0.0,   -0.0,    0.0,    0.0,    0.1,    0.1,    0.1,   -0.0,    0.0,    0.1,    0.1,    0.1,    0.1,    0.1,    0.2,    0.1,    0.0,    0.1,    0.1,  999.0,    0.3,  999.0,  999.0,  999.0,    0.2,    0.2,    0.2,    0.3,  999.0,  999.0,  999.0,  999.0,  999.0,  999.0,  999.0,  999.0,  999.0,  999.0,  999.0,   -0.9,   -0.9,   -0.9,   -1.0,   -1.0,   -1.0,   -1.0,   -1.0,   -1.0,   -1.0,   -1.0,   -1.0,   -1.0,   -1.0,   -1.0,   -1.1,   -1.1,   -1.0,   -1.1,   -1.0,   -0.9,   -1.0,   -0.8,   -0.8
2006/06/28 05:10,    0.0,    0.0,    0.0,   -0.0,    0.2,    0.1,    0.1,    0.1,    0.1,    0.1,    0.1,    0.0,   -0.1,   -0.1,   -0.0,   -0.0,    0.1,    0.0,    0.0,    0.1,    0.1,    0.2,    0.1,    0.0,   -0.0,    0.1,    0.2,    0.2,    0.1,    0.1,    0.2,    0.3,    0.2,    0.1,    0.1,    0.3,    0.0,    0.1,  999.0,  999.0,  999.0,  999.0,    0.3,    0.4,    0.1,  999.0,    0.2,  999.0,  999.0,    0.3,    0.2,  999.0,  999.0,  999.0,  999.0,  999.0,   -0.8,   -0.9,   -1.0,   -1.1,   -1.0,   -1.1,   -1.0,   -1.0,   -1.1,   -1.0,   -1.0,   -1.1,   -1.1,   -1.0,   -1.0,   -1.0,   -1.0,   -1.0,   -1.0,   -0.9,   -0.9,   -0.8,   -0.9,   -0.9
2006/06/28 05:20,    0.0,    0.0,    0.1,    0.1,    0.1,    0.1,   -0.0,    0.1,    0.1,    0.1,    0.1,    0.1,    0.1,    0.1,    0.1,    0.1,    0.2,    0.2,    0.2,    0.2,    0.2,    0.2,    0.2,    0.1,   -0.0,    0.0,    0.0,    0.2,    0.2,    0.0,    0.1,    0.1,    0.1,    0.1,    0.1,    0.0,   -0.0,  999.0,    0.1,    0.1,    0.2,    0.2,  999.0,  999.0,    0.3,    0.3,  999.0,  999.0,  999.0,    0.5,  999.0,  999.0,  999.0,  999.0,  999.0,   -0.2,  999.0,   -0.2,   -0.8,   -0.9,   -0.9,   -0.9,   -0.8,   -0.9,   -0.9,   -0.9,   -1.0,   -1.0,   -1.0,   -1.1,   -1.2,   -1.1,   -1.1,   -1.1,   -1.1,   -1.1,   -1.1,   -1.0,  999.0,   -1.2
2006/06/28 05:30,   -0.0,    0.0,   -0.0,    0.1,    0.0,    0.0,   -0.0,    0.0,   -0.0,    0.1,  999.0,    0.1,    0.1,    0.1,    0.2,    0.2,    0.2,    0.2,    0.2,    0.2,    0.2,    0.1,    0.1,    0.1,   -0.0,    0.0,    0.2,    0.1,    0.1,    0.1,    0.0,    0.1,    0.1,    0.1,   -0.0,    0.0,  999.0,  999.0,    0.4,    0.3,    0.3,    0.3,    0.3,    0.4,  999.0,    0.4,  999.0,    0.1,    0.3,    0.3,    0.2,   -0.1,  999.0,  999.0,  999.0,  999.0,  999.0,  999.0,   -0.8,   -0.9,   -1.0,   -0.8,   -0.9,   -1.0,   -1.0,   -0.9,   -0.9,   -0.8,   -1.0,   -0.9,   -1.0,   -1.2,   -1.0,   -0.9,  999.0,  999.0,  999.0,  999.0,  999.0,  999.0
2006/06/28 05:40,  999.0,    0.0,    0.1,    0.0,    0.1,    0.1,    0.1,    0.1,    0.1,    0.1,    0.1,  999.0,    0.0,   -0.0,    0.1,   -0.0,   -0.0,    0.0,    0.0,    0.0,   -0.0,    0.1,  999.0,  999.0,  999.0,    0.0,    0.1,    0.1,    0.1,   -0.0,    0.1,    0.1,    0.0,    0.1,    0.0,    0.1,  999.0,  999.0,    0.1,    0.2,    0.1,    0.1,    0.1,    0.1,  999.0,    0.2,    0.2,  999.0,   -0.0,    0.1,    0.0,   -0.2,  999.0,  999.0,  999.0,   -0.2,   -0.4,  999.0,   -0.6,   -0.9,   -0.8,   -0.8,   -0.8,   -0.7,   -0.6,   -0.7,   -0.9,   -0.9,   -0.9,   -1.0,   -1.1,   -1.1,   -1.2,   -1.1,   -1.0,   -1.2,   -1.1,   -1.1,   -1.1,   -1.0
2006/06/28 05:50,  999.0,  999.0,  999.0,  999.0,   -0.0,    0.0,    0.1,    0.1,    0.2,    0.2,    0.2,    0.2,    0.0,    0.0,    0.0,    0.0,    0.0,    0.0,    0.1,    0.1,    0.0,    0.0,    0.1,    0.0,   -0.0,   -0.0,    0.0,    0.0,    0.1,    0.0,    0.0,    0.0,    0.0,   -0.0,    0.0,  999.0,  999.0,   -0.0,    0.1,    0.1,    0.1,    0.2,  999.0,  999.0,  999.0,    0.1,    0.2,    0.0,  999.0,    0.1,   -0.0,  999.0,    0.2,    0.1,   -0.1,  999.0,  999.0,  999.0,  999.0,   -0.2,   -0.5,   -0.6,   -0.5,   -0.6,   -0.5,   -0.6,   -0.7,   -0.9,   -0.8,   -0.8,   -0.9,   -1.0,   -1.0,   -0.9,   -1.0,   -1.0,   -1.0,   -1.0,   -1.0,   -0.9
2006/06/28 06:00,  999.0,  999.0,  999.0,   -0.0,   -0.0,    0.0,    0.0,   -0.0,   -0.0,   -0.0,    0.0,    0.0,    0.0,    0.0,   -0.0,    0.0,   -0.0,    0.1,    0.1,    0.1,    0.0,    0.1,    0.1,    0.2,    0.1,    0.1,    0.1,    0.1,    0.1,    0.0,    0.0,    0.0,    0.0,    0.0,    0.0,    0.0,  999.0,   -0.0,    0.1,    0.1,  999.0,  999.0,    0.1,  999.0,    0.0,    0.1,    0.3,  999.0,  999.0,    0.7,  999.0,  999.0,  999.0,  999.0,    0.1,  999.0,  999.0,  999.0,   -0.3,   -0.2,   -0.5,   -0.4,   -0.6,   -0.6,   -0.7,   -0.8,   -0.8,   -1.0,   -1.0,   -1.0,   -1.0,   -1.1,   -1.0,   -0.9,   -1.0,   -1.0,   -1.0,   -1.0,   -1.0,   -1.0
2006/06/28 06:10,  999.0,    0.0,  999.0,    0.0,   -0.0,    0.0,   -0.1,   -0.1,   -0.1,   -0.0,   -0.0,    0.1,    0.1,    0.1,   -0.0,   -0.0,   -0.1,   -0.1,   -0.1,   -0.1,   -0.1,   -0.1,   -0.1,    0.0,    0.0,    0.1,    0.1,    0.1,    0.1,    0.1,    0.0,    0.1,    0.0,    0.0,    0.1,    0.1,    0.2,    0.2,    0.2,    0.2,    0.0,    0.1,    0.3,    0.2,    0.2,    0.2,    0.3,    0.2,    0.5,  999.0,  999.0,  999.0,  999.0,  999.0,  999.0,  999.0,  999.0,  999.0,  999.0,  999.0,  999.0,  999.0,  999.0,  999.0,  999.0,  999.0,  999.0,  999.0,  999.0,  999.0,  999.0,  999.0,  999.0,  999.0,  999.0,  999.0,   -0.9,   -0.9,   -1.0,   -0.9
2006/06/28 06:20,  999.0,  999.0,    0.0,    0.0,   -0.0,    0.0,    0.0,    0.1,    0.1,    0.1,    0.2,    0.1,    0.1,    0.0,   -0.1,   -0.1,   -0.0,   -0.0,    0.0,   -0.0,   -0.0,   -0.0,   -0.0,    0.0,   -0.0,    0.0,    0.0,    0.0,    0.0,    0.0,    0.0,    0.0,    0.0,    0.0,    0.1,    0.1,    0.1,  999.0,    0.1,    0.2,    0.3,    0.3,    0.4,    0.4,    0.5,    0.5,    0.5,    0.3,  999.0,    0.6,  999.0,  999.0,  999.0,  999.0,  999.0,  999.0,  999.0,  999.0,  999.0,  999.0,  999.0,  999.0,  999.0,  999.0,  999.0,  999.0,    0.2,    0.1,  999.0,  999.0,  999.0,  999.0,  999.0,  999.0,  999.0,  999.0,  999.0,  999.0,  999.0,  999.0
2006/06/28 06:30,  999.0,  999.0,  999.0,    0.0,    0.1,    0.1,    0.2,    0.3,    0.2,    0.2,    0.1,    0.1,   -0.0,   -0.1,   -0.1,    0.0,   -0.1,   -0.1,   -0.1,   -0.0,    0.0,   -0.0,    0.0,    0.0,   -0.0,    0.0,    0.0,    0.0,    0.1,   -0.0,    0.1,    0.0,    0.0,   -0.0,    0.1,    0.1,  999.0,  999.0,    0.2,    0.2,    0.3,    0.3,    0.4,    0.5,    0.4,    0.2,    0.3,    0.5,    0.5,    0.3,    0.3,  999.0,  999.0,  999.0,  999.0,    0.1,    0.2,  999.0,  999.0,  999.0,  999.0,  999.0,  999.0,    0.1,    0.4,  999.0,  999.0,    0.0,    0.1,  999.0,  999.0,  999.0,  999.0,  999.0,   -0.3,   -0.2,  999.0,  999.0,  999.0,  999.0
2006/06/28 06:40,    0.0,    0.0,   -0.0,    0.0,    0.1,    0.1,    0.1,    0.2,    0.3,    0.3,    0.3,    0.3,    0.2,    0.2,    0.1,    0.0,    0.1,    0.0,    0.0,   -0.0,    0.0,   -0.0,   -0.0,    0.0,   -0.0,    0.0,    0.0,    0.0,    0.1,    0.0,   -0.0,    0.0,   -0.0,   -0.0,    0.1,    0.0,    0.1,   -0.1,    0.1,    0.1,    0.1,    0.1,    0.1,    0.0,    0.1,    0.1,    0.1,    0.2,    0.2,    0.2,  999.0,  999.0,  999.0,  999.0,  999.0,    0.0,  999.0,  999.0,  999.0,  999.0,  999.0,  999.0,  999.0,  999.0,  999.0,  999.0,  999.0,   -0.6,   -0.8,   -1.1,   -0.9,   -1.0,   -0.9,   -0.9,   -0.9,   -0.8,   -0.8,   -0.6,   -0.7,   -0.6
2006/06/28 06:50,    0.0,    0.0,   -0.0,   -0.0,    0.0,    0.0,    0.1,    0.1,    0.0,    0.1,    0.0,    0.0,   -0.1,   -0.0,   -0.1,   -0.1,   -0.2,   -0.1,   -0.0,   -0.1,   -0.1,   -0.0,    0.0,    0.0,    0.0,    0.1,    0.1,    0.1,    0.1,    0.1,    0.0,    0.1,    0.1,    0.1,   -0.0,    0.1,    0.1,    0.2,    0.1,    0.0,    0.1,    0.1,    0.1,    0.3,    0.3,    0.2,    0.1,    0.1,    0.2,    0.1,  999.0,    0.1,    0.2,  999.0,    0.3,    0.2,  999.0,  999.0,  999.0,  999.0,  999.0,  999.0,  999.0,  999.0,    0.1,   -0.4,   -0.2,   -0.8,   -0.8,   -0.8,   -0.8,   -0.9,   -0.8,   -0.7,   -0.7,   -0.7,   -0.7,   -0.8,   -0.8,   -0.6
2006/06/28 07:00,    0.0,    0.0,    0.0,    0.0,    0.1,    0.2,    0.2,    0.2,    0.3,    0.3,    0.2,    0.2,    0.1,    0.2,    0.2,    0.2,    0.2,    0.2,    0.2,    0.2,    0.2,    0.1,    0.1,    0.1,   -0.0,    0.1,    0.1,    0.1,    0.2,    0.1,    0.0,    0.1,    0.1,    0.2,    0.1,    0.2,    0.3,    0.4,    0.2,    0.2,    0.2,    0.2,    0.2,    0.3,    0.2,    0.2,    0.2,    0.2,    0.2,    0.3,    0.2,    0.3,    0.5,  999.0,    0.2,  999.0,  999.0,  999.0,  999.0,    0.1,  999.0,  999.0,  999.0,  999.0,   -0.8,   -0.9,   -0.9,   -0.9,   -0.9,   -0.9,   -0.8,   -0.8,   -0.7,   -0.7,   -0.6,   -0.5,   -0.5,   -0.6,   -0.4,   -0.6
2006/06/28 07:10,    0.0,    0.0,   -0.0,   -0.1,    0.0,    0.1,    0.2,    0.2,    0.2,    0.3,    0.2,    0.1,    0.1,    0.1,    0.1,    0.0,    0.0,    0.0,   -0.0,    0.0,    0.0,   -0.0,   -0.0,   -0.0,   -0.0,    0.0,    0.0,    0.0,    0.1,    0.0,    0.1,    0.1,    0.2,    0.0,    0.1,    0.2,    0.1,    0.2,    0.2,    0.2,    0.2,    0.1,    0.1,    0.3,    0.3,    0.2,    0.2,    0.2,  999.0,  999.0,    0.1,    0.1,    0.1,    0.0,    0.2,    0.0,    0.1,   -0.0,  999.0,    0.1,  999.0,  999.0,  999.0,  999.0,  999.0,  999.0,   -0.4,   -0.6,   -0.5,   -0.6,   -0.5,   -0.6,   -0.5,   -0.6,  999.0,  999.0,  999.0,  999.0,   -0.7,   -0.6
2006/06/28 07:20,   -0.0,   -0.0,    0.0,    0.0,    0.1,    0.1,    0.0,    0.1,    0.1,    0.2,    0.2,    0.1,    0.0,   -0.0,   -0.0,   -0.1,   -0.0,   -0.0,    0.0,    0.0,    0.1,    0.1,    0.0,   -0.0,    0.0,    0.0,    0.1,    0.1,    0.2,    0.1,    0.2,    0.2,    0.1,    0.2,    0.2,    0.2,    0.2,    0.1,    0.1,    0.1,    0.0,    0.0,    0.1,    0.1,    0.2,    0.3,    0.1,  999.0,    0.3,   -0.1,    0.0,    0.1,    0.4,    0.3,  999.0,    0.3,  999.0,   -0.0,  999.0,  999.0,  999.0,  999.0,  999.0,  999.0,  999.0,  999.0,  999.0,   -0.2,   -0.3,   -0.6,   -0.7,   -0.7,   -0.8,   -0.9,   -1.0,   -1.0,   -1.0,  999.0,  999.0,   -0.8
2006/06/28 07:30,   -0.1,   -0.0,    0.0,   -0.0,   -0.0,   -0.0,   -0.0,    0.0,   -0.0,    0.1,    0.1,    0.1,    0.0,    0.0,   -0.0,   -0.1,   -0.1,   -0.1,   -0.1,   -0.1,   -0.2,   -0.0,   -0.0,   -0.0,   -0.0,    0.0,    0.0,    0.2,    0.1,    0.1,    0.1,    0.1,    0.1,    0.1,    0.1,    0.1,    0.1,    0.2,    0.2,    0.2,    0.2,    0.2,    0.0,    0.2,    0.3,    0.3,  999.0,    0.3,  999.0,   -0.0,  999.0,  999.0,  999.0,  999.0,  999.0,  999.0,  999.0,  999.0,  999.0,  999.0,  999.0,  999.0,  999.0,  999.0,  999.0,  999.0,  999.0,   -0.3,   -0.4,   -0.5,   -0.5,   -0.4,  999.0,  999.0,  999.0,   -0.9,   -0.8,  999.0,  999.0,  999.0
2006/06/28 07:40,   -0.0,    0.0,    0.0,    0.1,    0.1,    0.0,    0.1,    0.1,    0.1,    0.1,    0.1,    0.0,   -0.1,   -0.1,   -0.1,   -0.1,   -0.2,   -0.2,   -0.2,   -0.2,   -0.3,   -0.2,   -0.1,   -0.1,   -0.1,   -0.0,   -0.0,    0.1,    0.0,   -0.0,   -0.0,    0.0,    0.0,    0.1,   -0.0,    0.1,    0.1,    0.1,    0.1,    0.1,    0.1,    0.2,    0.2,    0.2,    0.3,    0.4,    0.1,   -0.1,    0.1,  999.0,  999.0,    0.1,  999.0,    0.1,  999.0,  999.0,  999.0,   -0.0,   -0.1,   -0.2,  999.0,  999.0,  999.0,  999.0,  999.0,  999.0,  999.0,  999.0,  999.0,   -0.7,   -0.7,   -0.6,  999.0,  999.0,  999.0,   -0.8,  999.0,  999.0,   -0.7,  999.0
2006/06/28 07:50,   -0.0,   -0.0,   -0.0,   -0.1,   -0.1,    0.1,    0.1,    0.1,    0.2,    0.0,   -0.0,    0.1,    0.1,    0.0,    0.0,   -0.0,   -0.1,   -0.1,   -0.1,   -0.0,   -0.0,   -0.0,   -0.0,   -0.0,   -0.0,   -0.0,   -0.0,   -0.0,   -0.0,    0.0,    0.0,   -0.0,    0.0,    0.0,    0.1,    0.1,    0.1,    0.1,    0.1,    0.0,    0.1,  999.0,  999.0,  999.0,    0.1,  999.0,    0.1,  999.0,  999.0,  999.0,  999.0,  999.0,  999.0,  999.0,    0.3,   -0.2,    0.1,    0.1,   -0.1,  999.0,    0.1,  999.0,  999.0,  999.0,  999.0,  999.0,  999.0,  999.0,   -0.4,   -0.6,   -0.5,   -0.5,   -0.4,   -0.4,   -0.2,  999.0,  999.0,  999.0,  999.0,  999.0
2006/06/28 08:00,   -0.0,    0.0,   -0.0,   -0.1,   -0.0,    0.0,    0.1,    0.1,    0.2,    0.1,    0.1,    0.0,    0.1,   -0.1,   -0.2,   -0.1,   -0.1,   -0.0,    0.0,    0.1,    0.1,    0.1,   -0.1,   -0.1,   -0.1,   -0.1,    0.1,    0.2,    0.2,    0.2,    0.1,    0.1,    0.1,    0.1,    0.1,    0.1,    0.2,    0.2,    0.1,    0.2,  999.0,  999.0,    0.1,    0.0,   -0.1,  999.0,  999.0,    0.1,  999.0,  999.0,  999.0,  999.0,  999.0,  999.0,   -0.0,    0.3,  999.0,  999.0,   -0.0,  999.0,  999.0,  999.0,   -0.1,  999.0,  999.0,  999.0,    0.0,  999.0,  999.0,   -0.6,   -0.7,   -0.7,   -0.7,   -0.8,   -0.3,  999.0,  999.0,  999.0,  999.0,  999.0
2006/06/28 08:10,   -0.1,    0.0,    0.0,   -0.0,    0.0,   -0.0,    0.1,    0.1,    0.0,    0.1,    0.0,    0.0,   -0.0,    0.0,    0.0,   -0.0,    0.0,    0.1,    0.2,   -0.0,    0.0,   -0.0,   -0.1,   -0.1,   -0.1,   -0.1,   -0.0,   -0.0,    0.0,    0.1,    0.1,    0.1,    0.1,    0.0,    0.1,   -0.1,    0.1,    0.0,    0.0,  999.0,  999.0,  999.0,  999.0,  999.0,  999.0,  999.0,  999.0,  999.0,  999.0,  999.0,  999.0,  999.0,  999.0,  999.0,  999.0,  999.0,    0.1,    0.0,    0.1,   -0.0,  999.0,  999.0,    0.0,    0.1,   -0.1,  999.0,  999.0,   -0.1,   -0.6,   -0.7,   -0.7,   -0.8,   -0.6,   -0.6,   -0.4,  999.0,  999.0,  999.0,  999.0,  999.0
2006/06/28 08:20,    0.0,    0.0,    0.1,   -0.0,   -0.0,    0.1,    0.2,    0.0,    0.2,    0.1,    0.1,    0.1,    0.1,    0.1,    0.1,    0.1,    0.1,    0.1,    0.1,    0.1,    0.1,    0.1,    0.1,    0.1,    0.1,    0.1,    0.1,    0.1,    0.1,    0.1,    0.1,    0.1,    0.0,    0.0,   -0.1,  999.0,    0.1,  999.0,    0.2,  999.0,  999.0,  999.0,   -0.0,   -0.1,    0.1,  999.0,  999.0,  999.0,  999.0,  999.0,  999.0,  999.0,  999.0,  999.0,    0.1,    0.1,  999.0,  999.0,    0.2,  999.0,  999.0,  999.0,    0.1,    0.3,  999.0,   -0.0,   -0.2,   -0.2,   -0.4,   -0.6,   -0.6,   -0.5,   -0.4,   -0.4,   -0.5,  999.0,  999.0,  999.0,  999.0,  999.0
2006/06/28 08:30,   -0.0,    0.0,    0.0,    0.1,    0.2,   -0.1,    0.0,    0.2,    0.1,    0.1,    0.1,    0.1,    0.1,    0.1,   -0.1,   -0.1,   -0.0,   -0.1,   -0.1,   -0.0,   -0.0,   -0.0,   -0.0,   -0.0,   -0.0,    0.0,    0.0,    0.0,    0.0,    0.1,    0.1,    0.2,    0.0,    0.2,  999.0,   -0.2,  999.0,  999.0,  999.0,    0.0,  999.0,    0.2,    0.1,    0.1,  999.0,  999.0,  999.0,  999.0,  999.0,  999.0,  999.0,  999.0,  999.0,    0.1,   -0.1,   -0.0,  999.0,  999.0,  999.0,  999.0,  999.0,  999.0,    0.1,    0.1,  999.0,  999.0,   -0.0,   -0.2,   -0.5,   -0.5,   -0.5,   -0.4,   -0.3,   -0.3,   -0.3,  999.0,  999.0,  999.0,  999.0,  999.0
2006/06/28 08:40,    0.0,    0.0,   -0.0,    0.2,    0.3,    0.1,   -0.1,   -0.3,   -0.0,    0.1,    0.1,    0.1,    0.1,    0.2,    0.2,    0.1,    0.1,    0.1,    0.1,    0.1,    0.1,    0.1,    0.1,    0.0,    0.0,    0.0,    0.0,    0.1,    0.1,    0.1,    0.1,    0.1,    0.0,    0.1,    0.1,   -0.1,   -0.1,  999.0,    0.0,    0.3,  999.0,    0.0,    0.5,    0.4,    0.3,  999.0,    0.0,  999.0,  999.0,  999.0,  999.0,  999.0,    0.3,    0.3,    0.2,  999.0,  999.0,  999.0,  999.0,  999.0,    0.4,    0.4,    0.0,    0.1,   -0.1,   -0.0,    0.0,   -0.4,   -0.5,   -0.5,   -0.5,   -0.4,   -0.4,   -0.4,   -0.2,  999.0,    0.1,  999.0,  999.0,  999.0
2006/06/28 08:50,    0.0,    0.0,    0.1,    0.2,    0.2,    0.0,   -0.1,  999.0,    0.2,    0.3,    0.2,    0.2,   -0.0,    0.1,    0.1,    0.0,    0.1,    0.1,    0.2,    0.2,    0.1,    0.1,    0.1,    0.1,    0.1,    0.2,    0.2,    0.2,    0.2,    0.1,    0.2,    0.2,    0.1,    0.1,    0.1,    0.1,    0.0,    0.2,    0.3,    0.3,    0.3,    0.2,    0.2,    0.3,  999.0,    0.1,  999.0,  999.0,  999.0,  999.0,    0.3,    0.3,    0.3,    0.3,    0.2,  999.0,  999.0,  999.0,  999.0,    0.1,    0.1,    0.2,  999.0,  999.0,  999.0,   -0.0,   -0.1,   -0.5,   -0.8,   -0.8,   -0.6,   -0.5,   -0.4,   -0.2,   -0.3,  999.0,  999.0,  999.0,  999.0,  999.0
2006/06/28 09:00,   -0.0,    0.0,    0.0,    0.1,    0.2,    0.1,   -0.0,    0.0,    0.0,    0.1,   -0.0,   -0.1,   -0.1,    0.0,    0.0,    0.0,    0.1,    0.1,    0.1,    0.1,    0.1,    0.1,    0.1,    0.1,    0.0,    0.1,    0.2,    0.2,    0.2,    0.1,    0.1,    0.2,    0.1,    0.1,    0.2,    0.4,    0.2,    0.3,    0.4,    0.4,    0.3,    0.2,    0.3,    0.3,  999.0,    0.2,   -0.0,  999.0,    0.2,    0.1,    0.2,    0.2,    0.2,    0.1,    0.2,  999.0,  999.0,  999.0,  999.0,    0.0,    0.1,  999.0,  999.0,  999.0,    0.4,    0.1,  999.0,   -0.2,   -0.6,   -0.7,   -0.8,   -0.7,   -0.7,   -0.8,   -0.8,  999.0,  999.0,  999.0,   -0.5,   -0.5
2006/06/28 09:10,    0.0,    0.0,    0.1,    0.1,    0.1,    0.3,    0.2,    0.3,    0.2,    0.2,    0.1,    0.1,   -0.1,    0.1,    0.1,    0.2,    0.1,    0.1,    0.2,    0.1,    0.1,    0.2,    0.1,    0.1,    0.1,    0.3,    0.4,    0.2,    0.3,    0.3,    0.1,    0.1,    0.2,    0.3,    0.3,    0.2,    0.3,    0.4,    0.4,    0.3,    0.2,    0.3,    0.3,    0.4,  999.0,    0.4,    0.1,    0.0,  999.0,  999.0,    0.0,    0.2,    0.2,    0.3,  999.0,    0.1,  999.0,    0.3,    0.2,    0.1,  999.0,    0.2,   -0.0,  999.0,  999.0,  999.0,  999.0,   -0.7,   -0.8,   -0.9,   -0.8,   -0.9,   -0.8,   -0.9,   -0.9,   -0.9,   -0.8,   -0.8,   -0.8,   -0.8
2006/06/28 09:20,   -0.0,   -0.0,    0.0,    0.0,    0.2,    0.4,    0.5,    0.3,    0.6,    0.4,    0.2,    0.3,    0.3,    0.3,    0.3,    0.2,    0.2,    0.1,    0.1,    0.1,    0.1,    0.1,    0.0,    0.1,    0.1,    0.2,    0.4,    0.2,    0.3,    0.2,    0.1,    0.1,    0.2,    0.0,    0.0,    0.0,    0.2,    0.7,  999.0,  999.0,    0.6,    0.5,    0.6,    0.5,    0.5,    0.3,    0.0,  999.0,   -0.0,    0.0,    0.1,  999.0,  999.0,  999.0,  999.0,  999.0,  999.0,    0.0,  999.0,  999.0,  999.0,  999.0,  999.0,  999.0,   -0.7,   -0.9,   -0.9,   -1.0,   -0.9,   -0.9,   -0.9,   -0.8,   -0.8,   -0.7,   -0.7,   -0.6,   -0.7,   -0.6,   -0.7,   -0.6
2006/06/28 09:30,  999.0,   -0.0,   -0.0,   -0.0,   -0.1,   -0.1,    0.1,   -0.1,   -0.2,   -0.1,   -0.0,    0.1,   -0.1,    0.1,    0.1,    0.1,    0.2,    0.1,    0.1,    0.1,    0.2,    0.0,    0.1,    0.1,    0.1,    0.2,    0.2,    0.1,    0.3,    0.3,    0.2,    0.1,    0.1,    0.1,    0.1,    0.1,    0.1,    0.3,    0.1,    0.2,    0.2,    0.3,    0.3,    0.3,  999.0,    0.1,    0.0,    0.1,  999.0,   -0.0,    0.0,  999.0,  999.0,  999.0,  999.0,  999.0,    0.1,    0.0,  999.0,  999.0,   -0.2,  999.0,   -0.2,   -0.7,   -1.0,   -1.0,   -1.0,   -1.0,   -1.0,   -0.9,   -0.8,   -0.7,   -0.6,   -0.6,   -0.5,   -0.5,   -0.5,   -0.5,   -0.5,   -0.5
2006/06/28 09:40,  999.0,    0.0,    0.0,    0.2,    0.3,    0.2,    0.3,    0.2,    0.3,    0.3,    0.3,    0.4,    0.2,    0.1,    0.4,    0.2,    0.4,    0.4,    0.4,    0.2,    0.4,    0.3,    0.4,    0.3,    0.3,    0.4,    0.3,    0.2,    0.2,    0.3,    0.2,    0.1,    0.2,    0.0,    0.0,    0.2,    0.3,    0.5,    0.3,    0.3,    0.2,    0.1,    0.1,    0.1,    0.0,   -0.0,   -0.1,   -0.0,  999.0,    0.0,  999.0,  999.0,  999.0,  999.0,  999.0,    0.1,    0.5,  999.0,    0.0,    0.1,   -0.1,   -0.7,   -1.1,   -1.1,   -1.1,   -1.3,   -1.3,   -1.3,   -1.2,   -1.1,   -1.0,   -1.0,   -0.9,   -0.8,   -0.8,   -0.8,   -0.7,   -0.7,   -0.7,   -0.7
2006/06/28 09:50,  999.0,   -0.0,    0.1,    0.2,    0.5,    0.7,    0.6,    0.5,    0.6,    0.6,    0.6,    0.6,    0.6,    0.5,    0.6,    0.5,    0.5,    0.6,    0.5,    0.6,    0.5,    0.4,    0.5,    0.5,    0.3,    0.4,    0.4,    0.4,    0.2,    0.4,    0.3,    0.3,    0.2,    0.2,    0.1,    0.2,    0.5,    0.4,    0.4,    0.3,    0.4,    0.4,    0.4,    0.4,    0.4,    0.4,    0.5,    0.0,  999.0,    0.3,  999.0,  999.0,  999.0,    0.2,    0.2,   -0.0,  999.0,  999.0,  999.0,  999.0,  999.0,   -0.6,   -1.0,   -0.9,   -1.0,   -1.1,   -1.1,   -1.1,   -1.0,   -1.0,   -1.0,   -1.0,   -1.0,   -0.9,   -0.8,   -0.9,   -0.9,   -0.8,   -0.8,   -0.8
2006/06/28 10:00,   -0.0,   -0.0,    0.0,    0.1,    0.2,    0.2,    0.3,    0.3,    0.2,    0.2,    0.3,    0.3,    0.3,    0.3,    0.6,    0.6,    0.7,    0.6,    0.5,    0.4,    0.4,    0.3,    0.3,    0.2,    0.1,    0.3,    0.3,    0.2,    0.4,    0.3,    0.3,    0.4,    0.1,    0.0,    0.1,    0.0,    0.2,    0.3,    0.2,    0.3,    0.3,    0.1,    0.2,    0.1,    0.2,   -0.0,    0.3,   -0.0,    0.1,  999.0,  999.0,  999.0,  999.0,    0.3,  999.0,  999.0,  999.0,  999.0,  999.0,    0.1,   -0.0,   -0.2,   -0.7,   -1.0,   -1.2,   -1.2,   -1.3,   -1.4,   -1.4,   -1.2,   -1.2,   -1.2,   -1.1,   -1.1,   -1.0,   -1.0,   -0.9,   -0.9,   -0.8,   -0.7
2006/06/28 10:10,    0.0,    0.0,    0.0,    0.1,    0.2,    0.2,    0.0,    0.2,  999.0,    0.0,    0.2,    0.3,    0.2,    0.4,    0.3,    0.5,    0.5,    0.4,    0.5,    0.4,    0.3,    0.4,    0.3,    0.2,    0.0,    0.1,    0.2,    0.2,    0.2,    0.1,    0.3,    0.3,    0.1,    0.0,    0.0,    0.1,    0.3,    0.2,    0.2,    0.3,    0.3,    0.3,    0.2,    0.4,    0.5,    0.0,    0.1,    0.2,    0.3,    0.1,    0.1,  999.0,  999.0,    0.4,    0.5,  999.0,  999.0,  999.0,  999.0,  999.0,  999.0,  999.0,   -0.5,   -0.9,   -1.1,   -1.3,   -1.2,   -1.3,   -1.3,   -1.4,   -1.3,   -1.2,   -1.2,   -1.1,   -1.0,   -1.0,   -0.9,   -0.9,   -0.9,   -0.8
2006/06/28 10:20,  999.0,    0.0,    0.0,    0.1,    0.1,    0.1,    0.2,    0.2,    0.4,    0.2,    0.0,    0.2,    0.2,    0.2,    0.2,    0.2,    0.3,    0.3,    0.3,    0.2,    0.2,    0.1,    0.1,    0.1,   -0.0,    0.0,    0.1,    0.1,    0.1,    0.1,    0.2,    0.1,    0.0,    0.1,    0.1,    0.2,    0.2,    0.3,    0.4,    0.4,    0.4,    0.3,    0.3,  999.0,  999.0,    0.3,    0.1,    0.2,    0.3,    0.3,    0.4,    0.2,    0.4,    0.4,  999.0,  999.0,  999.0,  999.0,    0.1,  999.0,   -0.1,   -0.1,   -0.9,   -0.9,   -1.0,   -1.1,   -1.2,   -1.2,   -1.3,   -1.3,   -1.2,   -1.1,   -1.2,   -1.1,   -1.0,   -0.8,   -0.8,   -0.7,   -0.5,   -0.6
2006/06/28 10:30,    0.0,    0.0,   -0.0,   -0.0,    0.0,    0.0,    0.1,   -0.1,    0.1,    0.0,    0.2,    0.2,    0.2,    0.2,    0.1,    0.2,    0.3,    0.4,    0.3,    0.3,    0.3,    0.3,    0.2,    0.0,    0.0,    0.1,    0.1,    0.2,    0.1,    0.1,    0.1,    0.1,    0.0,   -0.0,    0.1,    0.1,    0.2,    0.2,    0.1,    0.3,    0.3,    0.3,    0.1,  999.0,  999.0,    0.1,    0.3,    0.2,    0.2,    0.3,    0.4,    0.4,    0.6,  999.0,  999.0,  999.0,  999.0,  999.0,  999.0,  999.0,   -0.0,   -0.1,   -0.4,   -0.8,   -1.1,   -1.2,   -1.2,   -1.2,   -1.3,   -1.3,   -1.2,   -1.1,   -1.0,   -0.9,   -0.8,   -0.7,   -0.7,   -0.6,   -0.5,   -0.5
2006/06/28 10:40,  999.0,    0.0,    0.0,    0.1,    0.1,    0.3,    0.3,    0.4,    0.3,    0.3,    0.1,    0.2,    0.3,    0.1,    0.3,    0.3,    0.2,    0.2,    0.2,    0.2,    0.3,    0.2,    0.1,    0.0,    0.0,    0.0,    0.2,    0.1,    0.2,    0.1,    0.1,    0.2,    0.1,    0.1,   -0.0,    0.1,    0.3,    0.3,    0.5,    0.3,    0.4,    0.4,    0.3,    0.2,    0.5,    0.3,  999.0,    0.2,    0.2,    0.0,    0.2,    0.1,    0.3,  999.0,  999.0,  999.0,  999.0,  999.0,  999.0,  999.0,  999.0,  999.0,  999.0,   -1.1,   -1.0,   -1.2,   -1.4,   -1.3,   -1.3,   -1.3,   -1.3,   -1.2,   -1.2,   -1.2,   -1.1,   -1.0,   -0.9,   -0.9,   -0.8,   -0.7
2006/06/28 10:50,  999.0,   -0.0,   -0.0,   -0.0,   -0.1,   -0.1,   -0.2,   -0.3,   -0.1,   -0.1,   -0.1,   -0.1,   -0.0,   -0.0,    0.1,    0.1,    0.1,    0.2,    0.2,    0.2,    0.2,    0.2,    0.0,    0.0,    0.0,    0.1,    0.1,    0.0,    0.0,    0.0,    0.0,    0.1,    0.0,    0.0,    0.0,    0.1,    0.2,    0.3,    0.4,    0.4,    0.3,    0.3,  999.0,  999.0,  999.0,    0.1,   -0.0,    0.1,    0.1,    0.1,   -0.0,    0.2,  999.0,  999.0,  999.0,    0.6,  999.0,  999.0,  999.0,  999.0,    0.0,  999.0,  999.0,   -0.9,   -1.2,   -1.3,   -1.7,   -1.7,   -1.8,   -1.8,   -1.8,   -1.7,   -1.6,   -1.4,   -1.2,   -1.1,   -1.0,   -1.0,   -0.8,   -0.6
2006/06/28 11:00,  999.0,    0.0,   -0.0,   -0.1,   -0.0,   -0.2,   -0.4,   -0.3,   -0.3,   -0.2,   -0.3,   -0.3,   -0.2,   -0.1,   -0.1,   -0.1,   -0.2,   -0.2,   -0.1,   -0.1,   -0.1,   -0.0,   -0.0,   -0.0,   -0.0,   -0.0,   -0.0,   -0.0,   -0.0,   -0.0,   -0.0,    0.0,    0.0,    0.1,    0.1,    0.0,    0.1,    0.3,    0.1,    0.2,    0.2,    0.1,    0.0,  999.0,  999.0,    0.1,   -0.1,    0.0,    0.0,    0.1,    0.0,    0.0,    0.1,  999.0,    0.3,  999.0,  999.0,  999.0,  999.0,  999.0,  999.0,  999.0,  999.0,  999.0,   -0.8,   -0.8,   -1.0,   -1.7,   -1.6,   -1.7,   -1.5,   -1.5,   -1.4,   -1.4,   -1.2,   -1.1,   -0.9,   -0.7,   -0.6,   -0.5
2006/06/28 11:10,  999.0,   -0.0,   -0.0,   -0.0,   -0.0,   -0.0,   -0.1,   -0.1,   -0.1,   -0.1,   -0.1,   -0.1,   -0.1,   -0.1,   -0.1,   -0.2,   -0.1,   -0.0,   -0.0,   -0.1,   -0.1,   -0.0,    0.0,   -0.0,    0.0,    0.0,   -0.0,   -0.0,    0.0,    0.1,    0.1,    0.1,    0.1,    0.1,    0.2,    0.2,    0.4,    0.4,    0.2,    0.3,  999.0,   -0.0,    0.0,  999.0,    0.3,    0.4,    0.3,   -0.0,   -0.0,    0.1,    0.3,  999.0,  999.0,    0.4,    0.4,    0.5,  999.0,  999.0,  999.0,  999.0,    0.0,  999.0,  999.0,  999.0,   -0.7,   -0.8,   -1.4,   -1.1,   -1.3,   -1.3,   -1.3,   -1.3,   -1.3,   -1.2,   -1.1,   -1.0,   -0.9,   -0.8,   -0.7,   -0.6
2006/06/28 11:20,    0.0,    0.0,   -0.0,   -0.0,   -0.0,   -0.1,   -0.2,   -0.2,   -0.2,   -0.1,   -0.0,   -0.1,   -0.1,   -0.1,   -0.1,   -0.2,   -0.2,   -0.1,   -0.1,    0.0,    0.0,    0.1,    0.0,    0.0,    0.0,   -0.0,    0.0,   -0.0,    0.0,    0.0,    0.0,    0.0,   -0.0,    0.0,    0.1,    0.3,    0.3,    0.3,  999.0,    0.1,  999.0,  999.0,  999.0,  999.0,    0.2,    0.3,    0.3,    0.0,  999.0,    0.1,    0.0,  999.0,  999.0,  999.0,    0.2,    0.3,  999.0,  999.0,  999.0,  999.0,  999.0,  999.0,  999.0,  999.0,  999.0,  999.0,  999.0,  999.0,  999.0,   -0.6,   -0.6,   -0.7,   -0.7,   -0.7,   -0.6,   -0.5,   -0.5,   -0.5,   -0.5,   -0.5
2006/06/28 11:30,  999.0,    0.0,   -0.0,   -0.0,   -0.0,   -0.1,   -0.1,    0.0,   -0.1,   -0.1,   -0.0,   -0.1,    0.0,   -0.1,   -0.1,   -0.1,   -0.1,   -0.1,   -0.0,    0.0,    0.1,   -0.0,    0.0,    0.0,    0.0,    0.1,    0.1,    0.1,    0.1,    0.1,    0.1,    0.1,    0.1,    0.2,    0.4,    0.4,    0.5,    0.6,    0.7,    0.8,    0.3,    0.0,    0.3,    0.6,    0.5,    0.5,    0.3,    0.4,    0.2,    0.2,    0.0,  999.0,  999.0,    0.3,    0.4,  999.0,  999.0,  999.0,  999.0,  999.0,    0.1,  999.0,   -0.0,    0.1,  999.0,  999.0,  999.0,    0.2,    0.2,    0.1,   -0.4,   -0.4,   -0.5,   -0.3,   -0.4,   -0.4,   -0.3,   -0.3,   -0.2,   -0.2
2006/06/28 11:40,    0.0,    0.0,   -0.0,   -0.1,   -0.0,   -0.2,   -0.0,   -0.2,   -0.1,   -0.3,   -0.2,   -0.2,   -0.2,   -0.2,   -0.3,   -0.1,   -0.2,   -0.1,    0.0,    0.1,    0.0,    0.0,    0.0,    0.0,    0.0,    0.1,    0.1,    0.0,    0.0,    0.0,    0.0,    0.0,    0.0,   -0.0,    0.1,    0.1,    0.1,    0.2,    0.3,    0.3,    0.2,    0.2,    0.2,    0.2,    0.2,  999.0,    0.2,   -0.0,    0.1,    0.3,    0.1,    0.2,    0.2,    0.1,   -0.1,  999.0,   -0.0,  999.0,  999.0,  999.0,    0.1,    0.0,   -0.0,  999.0,  999.0,   -0.0,   -0.1,   -0.0,   -0.1,   -0.2,   -0.7,   -0.9,   -0.7,   -0.6,   -0.5,   -0.5,   -0.3,   -0.3,   -0.4,   -0.2
2006/06/28 11:50,    0.0,    0.0,   -0.0,   -0.1,   -0.0,   -0.2,   -0.2,   -0.2,   -0.1,   -0.1,   -0.0,   -0.1,   -0.0,    0.0,   -0.0,    0.0,    0.1,    0.2,    0.3,    0.2,    0.2,    0.2,    0.1,    0.0,    0.0,    0.1,    0.2,    0.0,    0.1,    0.1,    0.1,    0.1,    0.0,    0.1,    0.1,    0.2,    0.2,    0.3,    0.2,    0.1,    0.2,    0.2,    0.2,    0.2,    0.2,    0.2,    0.1,    0.2,    0.1,    0.0,    0.0,    0.1,    0.2,    0.3,    0.5,    0.0,  999.0,  999.0,    0.1,  999.0,  999.0,    0.1,  999.0,  999.0,   -0.1,   -0.1,   -0.1,   -0.3,   -0.7,   -0.8,   -0.8,   -0.8,   -0.8,   -0.6,   -0.5,   -0.7,   -0.6,   -0.6,   -0.4,   -0.4
2006/06/28 12:00,   -0.0,   -0.0,    0.0,    0.0,   -0.3,    0.0,   -0.4,   -0.2,   -0.2,   -0.1,   -0.1,   -0.1,   -0.1,   -0.1,    0.1,    0.0,    0.0,    0.1,    0.1,    0.1,    0.0,    0.1,   -0.0,   -0.0,    0.0,    0.1,    0.0,    0.0,    0.0,    0.0,   -0.0,    0.0,   -0.0,   -0.0,    0.1,    0.0,    0.1,    0.1,    0.1,    0.0,    0.1,   -0.0,    0.1,    0.1,    0.1,    0.1,    0.1,    0.1,   -0.0,  999.0,    0.0,  999.0,  999.0,    0.3,    0.4,   -0.0,  999.0,  999.0,    0.0,  999.0,    0.1,   -0.0,  999.0,  999.0,  999.0,   -0.3,  999.0,  999.0,   -0.4,   -0.8,   -1.1,   -1.0,   -0.9,   -0.8,   -0.8,   -0.6,   -0.5,   -0.5,   -0.4,   -0.4
2006/06/28 12:10,    0.0,   -0.0,   -0.0,   -0.1,   -0.3,   -0.3,   -0.6,   -0.4,   -0.3,   -0.4,   -0.4,   -0.5,   -0.3,   -0.4,   -0.3,   -0.1,   -0.2,   -0.1,   -0.1,   -0.2,   -0.1,   -0.1,   -0.0,   -0.0,   -0.0,    0.0,   -0.0,    0.0,    0.0,   -0.0,    0.0,    0.0,   -0.1,   -0.1,   -0.1,   -0.1,   -0.1,   -0.1,   -0.2,   -0.2,   -0.2,   -0.3,   -0.1,  999.0,    0.1,   -0.2,   -0.0,    0.0,   -0.0,   -0.0,    0.1,   -0.0,    0.0,  999.0,  999.0,    0.0,  999.0,    0.0,    0.0,    0.0,   -0.0,  999.0,  999.0,  999.0,  999.0,  999.0,  999.0,  999.0,  999.0,    0.5,    0.1,   -0.2,   -0.8,   -0.2,   -0.2,   -0.2,   -0.0,    0.1,    0.4,    0.4
2006/06/28 12:20,   -0.1,   -0.0,    0.0,    0.0,    0.1,   -0.0,   -0.0,   -0.1,    0.0,   -0.2,   -0.1,   -0.1,   -0.1,   -0.1,   -0.0,   -0.1,   -0.1,   -0.1,   -0.1,   -0.1,   -0.1,   -0.1,   -0.1,   -0.1,   -0.1,   -0.1,   -0.1,   -0.1,   -0.0,   -0.1,   -0.1,   -0.1,   -0.1,   -0.1,   -0.2,   -0.1,   -0.2,   -0.1,   -0.2,   -0.1,    0.0,   -0.0,   -0.1,   -0.1,    0.1,    0.0,   -0.0,    0.0,  999.0,   -0.0,   -0.0,    0.0,    0.1,    0.2,   -0.0,  999.0,  999.0,   -0.1,  999.0,   -0.1,   -0.0,   -0.0,    0.1,  999.0,  999.0,  999.0,  999.0,  999.0,    0.6,    0.8,    0.3,    0.8,   -0.1,  999.0,  999.0,  999.0,    0.3,  999.0,  999.0,  999.0
2006/06/28 12:30,    0.0,    0.0,   -0.0,   -0.0,   -0.1,    0.2,    0.2,    0.3,   -0.1,    0.0,    0.1,    0.1,    0.1,    0.1,    0.1,    0.1,    0.1,    0.1,   -0.0,   -0.0,   -0.0,   -0.0,   -0.1,   -0.0,   -0.0,   -0.1,   -0.0,    0.0,   -0.1,   -0.0,    0.0,   -0.1,   -0.1,   -0.0,   -0.1,   -0.2,   -0.1,    0.0,   -0.2,   -0.0,   -0.1,   -0.0,  999.0,   -0.0,  999.0,    0.0,  999.0,   -0.1,    0.1,  999.0,    0.1,    0.1,    0.1,  999.0,  999.0,   -0.1,  999.0,   -0.1,    0.0,  999.0,   -0.0,  999.0,  999.0,  999.0,  999.0,  999.0,  999.0,    0.2,    0.5,    0.5,    0.5,    0.9,  999.0,  999.0,  999.0,  999.0,  999.0,  999.0,  999.0,  999.0
2006/06/28 12:40,  999.0,    0.0,   -0.0,   -0.0,   -0.1,   -0.4,   -0.4,   -0.3,   -0.1,   -0.1,   -0.1,   -0.0,    0.1,   -0.1,   -0.1,   -0.1,   -0.0,   -0.0,   -0.0,    0.0,   -0.1,   -0.0,    0.0,   -0.0,    0.0,    0.0,    0.1,    0.1,    0.0,    0.0,    0.0,    0.0,   -0.0,   -0.0,    0.1,    0.1,    0.3,    0.3,    0.3,    0.3,    0.1,   -0.0,    0.1,  999.0,    0.0,    0.0,    0.0,    0.0,   -0.1,    0.0,   -0.0,   -0.0,   -0.0,  999.0,  999.0,    0.0,  999.0,    0.0,   -0.0,   -0.0,  999.0,  999.0,    0.0,  999.0,  999.0,  999.0,  999.0,  999.0,    0.5,    0.2,    0.5,  999.0,  999.0,  999.0,  999.0,  999.0,  999.0,  999.0,  999.0,  999.0
2006/06/28 12:50,    0.0,   -0.0,   -0.0,   -0.2,   -0.2,    0.2,   -0.1,   -0.2,   -0.3,   -0.2,   -0.2,   -0.2,   -0.2,   -0.2,   -0.2,   -0.2,   -0.2,   -0.4,   -0.2,   -0.1,   -0.2,   -0.1,   -0.1,   -0.0,   -0.0,    0.0,    0.1,    0.0,    0.0,   -0.0,   -0.0,   -0.0,   -0.0,   -0.0,   -0.1,    0.0,    0.0,    0.1,    0.0,    0.1,  999.0,  999.0,   -0.0,    0.1,  999.0,  999.0,   -0.0,    0.0,    0.0,    0.1,  999.0,  999.0,  999.0,  999.0,  999.0,  999.0,  999.0,    0.1,  999.0,  999.0,    0.1,  999.0,  999.0,  999.0,  999.0,  999.0,  999.0,  999.0,  999.0,  999.0,  999.0,  999.0,  999.0,  999.0,  999.0,  999.0,  999.0,  999.0,  999.0,  999.0
2006/06/28 13:00,   -0.0,    0.0,    0.0,   -0.1,   -0.0,   -0.1,   -0.2,   -0.0,    0.1,    0.0,   -0.0,   -0.2,   -0.2,   -0.1,   -0.1,    0.0,   -0.0,   -0.0,   -0.0,    0.0,    0.0,    0.0,    0.0,    0.0,    0.0,    0.0,    0.0,    0.0,    0.0,    0.0,    0.0,    0.1,    0.0,   -0.0,    0.0,    0.1,    0.1,    0.1,    0.0,  999.0,   -0.0,   -0.0,   -0.1,   -0.0,    0.0,   -0.0,   -0.0,  999.0,  999.0,  999.0,   -0.0,  999.0,  999.0,   -0.0,    0.0,    0.1,  999.0,    0.0,  999.0,   -0.0,    0.0,    0.0,  999.0,  999.0,  999.0,  999.0,    0.3,  999.0,  999.0,  999.0,  999.0,  999.0,  999.0,  999.0,  999.0,  999.0,  999.0,  999.0,  999.0,  999.0
2006/06/28 13:10,    0.0,   -0.0,   -0.0,   -0.1,   -0.2,   -0.4,   -0.3,   -0.2,   -0.0,   -0.2,   -0.3,   -0.1,   -0.0,   -0.1,   -0.0,    0.0,   -0.0,   -0.0,   -0.0,   -0.1,   -0.1,   -0.1,   -0.0,   -0.0,   -0.0,   -0.0,   -0.1,   -0.2,   -0.1,   -0.1,   -0.1,   -0.1,   -0.1,   -0.0,   -0.1,   -0.1,    0.0,    0.0,   -0.1,  999.0,    0.0,  999.0,  999.0,   -0.1,  999.0,   -0.0,    0.1,  999.0,    0.1,  999.0,  999.0,  999.0,    0.2,    0.3,  999.0,  999.0,    0.1,   -0.0,  999.0,  999.0,   -0.0,  999.0,    0.0,  999.0,  999.0,  999.0,  999.0,  999.0,  999.0,  999.0,  999.0,  999.0,  999.0,  999.0,  999.0,  999.0,  999.0,  999.0,  999.0,  999.0
2006/06/28 13:20,    0.0,   -0.0,    0.0,   -0.0,    0.0,   -0.1,   -0.1,   -0.1,   -0.0,   -0.2,   -0.6,   -0.4,   -0.3,   -0.1,   -0.2,   -0.1,   -0.1,   -0.1,   -0.1,   -0.2,   -0.2,   -0.3,   -0.1,   -0.1,   -0.2,   -0.2,   -0.1,   -0.1,   -0.1,   -0.1,   -0.1,   -0.1,   -0.2,   -0.2,   -0.2,   -0.2,   -0.0,   -0.2,  999.0,    0.1,    0.0,   -0.0,   -0.0,   -0.1,   -0.1,   -0.0,   -0.0,   -0.0,  999.0,    0.1,    0.0,    0.1,    0.1,  999.0,  999.0,    0.0,  999.0,  999.0,    0.0,  999.0,   -0.0,    0.0,  999.0,  999.0,  999.0,  999.0,  999.0,  999.0,  999.0,  999.0,  999.0,  999.0,  999.0,  999.0,  999.0,  999.0,  999.0,  999.0,  999.0,  999.0
2006/06/28 13:30,    0.0,   -0.0,   -0.0,   -0.1,   -0.2,   -0.2,   -0.2,    0.2,   -0.0,   -0.3,    0.2,    0.2,    0.2,    0.0,    0.0,    0.0,    0.0,   -0.0,   -0.0,    0.0,   -0.1,   -0.1,   -0.1,   -0.1,   -0.1,   -0.1,   -0.1,   -0.1,   -0.2,   -0.1,   -0.2,   -0.1,   -0.1,   -0.1,   -0.0,   -0.0,   -0.1,   -0.1,    0.0,   -0.0,   -0.1,    0.1,   -0.0,   -0.1,   -0.1,   -0.0,  999.0,    0.0,    0.1,    0.0,   -0.0,    0.0,  999.0,  999.0,  999.0,   -0.0,   -0.0,    0.0,   -0.0,   -0.0,  999.0,    0.0,  999.0,  999.0,  999.0,  999.0,  999.0,  999.0,  999.0,  999.0,  999.0,  999.0,  999.0,  999.0,  999.0,  999.0,  999.0,  999.0,  999.0,  999.0
2006/06/28 13:40,   -0.0,    0.0,   -0.1,   -0.1,   -0.4,   -0.3,   -0.4,   -0.2,   -0.1,    0.3,    0.2,    0.1,    0.1,    0.2,    0.2,    0.2,    0.2,    0.1,    0.1,    0.2,    0.2,    0.1,    0.1,    0.1,    0.1,    0.1,    0.1,    0.1,    0.1,    0.1,    0.1,    0.1,    0.0,    0.0,    0.0,    0.1,    0.0,   -0.0,   -0.1,    0.0,   -0.1,   -0.1,    0.0,    0.0,   -0.1,   -0.1,   -0.0,   -0.0,    0.2,    0.0,    0.0,    0.1,  999.0,  999.0,  999.0,    0.0,  999.0,    0.0,    0.0,   -0.0,   -0.0,   -0.1,    0.0,  999.0,  999.0,   -0.1,   -0.1,  999.0,  999.0,    0.0,  999.0,  999.0,  999.0,  999.0,  999.0,  999.0,  999.0,  999.0,  999.0,  999.0
2006/06/28 13:50,   -0.0,    0.0,    0.1,    0.0,   -0.0,   -0.1,    0.1,    0.2,   -0.2,   -0.3,    0.1,   -0.1,   -0.0,   -0.1,   -0.1,   -0.1,   -0.1,   -0.2,   -0.2,   -0.3,   -0.3,   -0.3,   -0.3,   -0.2,   -0.1,   -0.2,   -0.2,   -0.1,   -0.1,   -0.1,   -0.0,   -0.2,   -0.2,   -0.2,   -0.2,   -0.1,   -0.1,   -0.2,   -0.2,   -0.1,   -0.1,    0.0,   -0.1,   -0.4,   -0.6,   -0.1,    0.0,    0.1,   -0.0,    0.0,   -0.1,    0.1,   -0.0,  999.0,  999.0,   -0.1,   -0.0,    0.0,  999.0,    0.0,    0.0,   -0.1,   -0.1,  999.0,  999.0,  999.0,  999.0,  999.0,  999.0,  999.0,  999.0,  999.0,  999.0,  999.0,  999.0,  999.0,  999.0,  999.0,  999.0,  999.0
2006/06/28 14:00,   -0.0,    0.0,   -0.1,   -0.1,   -0.1,   -0.5,   -0.5,   -0.2,    0.1,   -0.2,   -0.2,   -0.2,   -0.1,   -0.1,   -0.1,    0.0,    0.0,   -0.0,   -0.0,   -0.0,   -0.0,    0.0,    0.0,    0.1,    0.1,    0.1,    0.1,    0.0,   -0.0,   -0.0,   -0.1,   -0.1,   -0.0,   -0.1,   -0.0,   -0.0,    0.0,   -0.2,   -0.1,   -0.4,   -0.0,    0.0,   -0.1,   -0.1,   -0.3,   -0.1,   -0.0,    0.0,   -0.1,    0.0,  999.0,    0.0,    0.2,  999.0,  999.0,    0.0,  999.0,  999.0,  999.0,    0.0,    0.1,  999.0,    0.0,  999.0,  999.0,  999.0,  999.0,  999.0,  999.0,  999.0,  999.0,  999.0,  999.0,  999.0,  999.0,  999.0,  999.0,  999.0,  999.0,  999.0
2006/06/28 14:10,  999.0,   -0.0,   -0.0,   -0.1,   -0.3,   -0.7,   -0.6,   -0.4,   -0.5,   -0.3,   -0.4,   -0.3,   -0.3,   -0.3,   -0.4,   -0.4,   -0.3,   -0.2,   -0.2,   -0.1,   -0.2,   -0.2,   -0.1,   -0.1,   -0.1,   -0.0,   -0.1,   -0.0,    0.1,    0.0,    0.0,    0.0,    0.0,    0.0,    0.0,   -0.1,   -0.1,   -0.1,   -0.3,   -0.4,   -0.1,   -0.0,   -0.2,  999.0,   -0.3,   -0.1,   -0.0,    0.0,   -0.1,   -0.1,   -0.0,    0.0,   -0.0,  999.0,    0.2,    0.0,  999.0,    0.0,   -0.0,    0.1,  999.0,   -0.1,    0.0,  999.0,  999.0,  999.0,  999.0,  999.0,  999.0,  999.0,  999.0,  999.0,  999.0,  999.0,  999.0,  999.0,  999.0,  999.0,  999.0,  999.0
2006/06/28 14:20,    0.0,   -0.0,   -0.0,   -0.1,   -0.4,   -0.3,   -0.5,   -0.3,   -0.5,   -0.5,   -0.2,   -0.1,   -0.1,   -0.4,   -0.0,   -0.2,   -0.1,   -0.2,   -0.2,   -0.2,   -0.0,   -0.0,    0.0,    0.0,    0.0,    0.1,    0.2,    0.1,    0.0,    0.1,   -0.0,   -0.0,   -0.0,   -0.0,   -0.0,   -0.0,   -0.0,   -0.0,   -0.1,    0.0,  999.0,   -0.0,   -0.0,   -0.0,  999.0,    0.0,  999.0,   -0.0,    0.0,   -0.1,   -0.0,    0.0,  999.0,  999.0,  999.0,   -0.1,  999.0,   -0.1,   -0.0,  999.0,  999.0,   -0.0,   -0.0,  999.0,  999.0,  999.0,  999.0,  999.0,  999.0,  999.0,  999.0,  999.0,  999.0,  999.0,  999.0,  999.0,  999.0,  999.0,  999.0,  999.0
2006/06/28 14:30,   -0.0,    0.0,   -0.0,   -0.2,    0.2,   -0.1,   -0.2,   -0.0,    0.1,    0.0,    0.2,    0.1,    0.0,    0.2,    0.1,   -0.0,    0.0,    0.2,    0.1,    0.2,    0.1,    0.0,    0.0,    0.0,    0.1,    0.2,    0.2,    0.1,    0.1,    0.2,    0.0,    0.1,    0.0,    0.1,    0.2,    0.4,    0.1,    0.3,    0.2,    0.1,    0.0,    0.1,    0.3,    0.2,  999.0,    0.4,   -0.0,    0.0,    0.2,    0.0,    0.0,  999.0,  999.0,  999.0,   -0.0,    0.0,  999.0,   -0.0,  999.0,    0.0,    0.0,  999.0,   -0.0,  999.0,  999.0,  999.0,  999.0,  999.0,  999.0,  999.0,  999.0,  999.0,  999.0,  999.0,  999.0,  999.0,  999.0,  999.0,  999.0,  999.0
2006/06/28 14:40,    0.0,   -0.0,   -0.0,   -0.3,   -0.2,   -0.3,   -0.4,   -0.8,   -0.7,   -0.5,   -0.7,   -0.7,   -0.2,   -0.2,   -0.3,   -0.1,   -0.2,   -0.2,   -0.2,   -0.2,   -0.2,   -0.2,   -0.1,   -0.1,  999.0,   -0.2,   -0.2,   -0.1,   -0.1,   -0.1,   -0.1,   -0.2,   -0.1,   -0.1,   -0.1,   -0.0,   -0.1,   -0.2,   -0.2,   -0.1,    0.0,   -0.1,   -0.1,    0.0,  999.0,    0.0,    0.0,    0.0,    0.0,   -0.0,  999.0,   -0.1,    0.1,   -0.2,   -0.1,   -0.0,  999.0,  999.0,   -0.1,    0.0,  999.0,  999.0,    0.0,  999.0,  999.0,  999.0,  999.0,  999.0,  999.0,  999.0,  999.0,  999.0,  999.0,  999.0,  999.0,  999.0,  999.0,  999.0,  999.0,  999.0
2006/06/28 14:50,   -0.1,    0.0,    0.0,   -0.1,   -0.2,   -0.1,    0.1,    0.2,   -0.2,   -0.0,   -0.3,    0.4,    0.2,    0.1,    0.1,    0.1,    0.1,    0.1,    0.0,   -0.0,   -0.0,   -0.0,    0.0,   -0.0,   -0.0,   -0.0,   -0.0,   -0.1,   -0.1,   -0.1,   -0.0,    0.0,   -0.1,   -0.0,    0.0,   -0.0,    0.0,    0.2,    0.5,    0.6,    0.4,    0.1,    0.2,  999.0,  999.0,  999.0,    0.0,    0.0,    0.2,    0.3,    0.3,    0.1,   -0.1,  999.0,  999.0,  999.0,  999.0,    0.1,  999.0,    0.0,   -0.0,  999.0,   -0.0,  999.0,  999.0,  999.0,  999.0,  999.0,  999.0,  999.0,  999.0,  999.0,  999.0,  999.0,  999.0,  999.0,  999.0,  999.0,  999.0,  999.0
2006/06/28 15:00,  999.0,    0.0,   -0.0,   -0.1,   -0.2,   -0.1,    0.0,    0.2,    0.5,    0.6,    0.5,    0.7,    0.6,    0.7,    0.5,    0.5,    0.5,    0.5,    0.3,    0.3,    0.2,    0.2,    0.1,    0.1,    0.0,    0.1,    0.2,    0.1,    0.1,    0.1,    0.0,    0.0,    0.0,    0.0,   -0.0,    0.0,    0.0,    0.0,  999.0,    0.3,    0.4,    0.1,    0.1,    0.3,  999.0,  999.0,    0.0,    0.0,    0.1,    0.0,    0.1,    0.0,    0.0,  999.0,  999.0,  999.0,  999.0,    0.1,   -0.1,   -0.0,    0.0,    0.0,  999.0,  999.0,  999.0,  999.0,  999.0,  999.0,  999.0,  999.0,  999.0,  999.0,  999.0,  999.0,  999.0,  999.0,  999.0,  999.0,  999.0,  999.0
2006/06/28 15:10,  999.0,   -0.0,   -0.1,   -0.0,   -0.2,   -0.4,   -0.1,    0.1,    0.2,    0.4,    0.4,    0.3,    0.3,    0.4,    0.2,    0.2,    0.2,    0.1,    0.1,    0.1,    0.1,    0.1,    0.0,    0.0,    0.0,    0.0,    0.0,    0.1,    0.1,    0.1,    0.1,    0.0,    0.0,    0.1,    0.0,    0.0,    0.1,    0.2,    0.2,   -0.1,    0.0,    0.0,  999.0,  999.0,  999.0,   -0.1,    0.1,    0.1,    0.0,   -0.0,   -0.2,    0.0,   -0.1,  999.0,  999.0,    0.1,  999.0,  999.0,  999.0,  999.0,    0.0,  999.0,  999.0,  999.0,  999.0,  999.0,  999.0,  999.0,  999.0,  999.0,  999.0,  999.0,  999.0,  999.0,  999.0,  999.0,  999.0,  999.0,  999.0,  999.0
2006/06/28 15:20,    0.0,   -0.0,   -0.0,   -0.1,   -0.3,   -0.3,   -0.2,    0.1,   -0.1,    0.2,    0.3,    0.5,    0.5,    0.3,    0.4,    0.4,    0.3,    0.3,    0.3,    0.3,    0.4,    0.3,    0.1,    0.1,    0.0,    0.0,    0.0,    0.1,    0.1,    0.2,    0.2,    0.1,    0.1,    0.0,    0.0,    0.2,    0.5,    0.4,  999.0,    0.2,    0.1,  999.0,   -0.1,  999.0,  999.0,    0.4,    0.1,    0.1,    0.2,    0.1,    0.2,    0.2,  999.0,  999.0,  999.0,    0.0,  999.0,    0.0,   -0.0,   -0.0,   -0.0,   -0.1,   -0.0,  999.0,  999.0,  999.0,  999.0,  999.0,  999.0,  999.0,  999.0,  999.0,  999.0,  999.0,  999.0,  999.0,  999.0,  999.0,  999.0,  999.0
2006/06/28 15:30,    0.0,   -0.0,    0.0,   -0.1,   -0.2,   -0.3,   -0.3,    0.0,    0.2,    0.6,    0.5,    0.6,    0.4,    0.4,    0.4,    0.3,    0.3,    0.2,    0.2,    0.3,    0.3,    0.1,    0.0,    0.0,   -0.0,    0.0,   -0.0,    0.0,    0.0,    0.0,   -0.0,   -0.0,    0.1,    0.0,    0.1,    0.3,    0.4,    0.5,    0.6,    0.4,  999.0,    0.3,  999.0,  999.0,    0.5,    0.5,    0.2,    0.3,    0.1,   -0.0,    0.4,    0.1,  999.0,  999.0,  999.0,   -0.0,  999.0,  999.0,  999.0,    0.0,   -0.0,   -0.1,    0.0,  999.0,  999.0,  999.0,  999.0,  999.0,  999.0,  999.0,  999.0,  999.0,  999.0,  999.0,  999.0,  999.0,  999.0,  999.0,  999.0,  999.0
2006/06/28 15:40,    0.0,    0.0,    0.0,   -0.0,   -0.2,   -0.2,   -0.1,   -0.1,    0.1,    0.4,    0.6,    0.4,    0.3,    0.3,    0.3,    0.3,    0.2,    0.1,    0.1,    0.1,    0.1,    0.0,    0.0,   -0.0,    0.0,    0.1,    0.0,    0.1,    0.0,    0.0,    0.1,    0.1,    0.1,    0.3,    0.5,    0.6,    0.8,    0.9,    0.8,    1.0,    0.9,  999.0,  999.0,  999.0,    0.7,    0.1,    0.1,    0.4,    0.5,  999.0,    0.1,    0.1,  999.0,  999.0,  999.0,   -0.1,  999.0,  999.0,  999.0,    0.0,  999.0,  999.0,  999.0,  999.0,  999.0,  999.0,  999.0,  999.0,  999.0,  999.0,  999.0,  999.0,  999.0,  999.0,  999.0,  999.0,  999.0,  999.0,  999.0,  999.0
2006/06/28 15:50,  999.0,    0.0,   -0.0,   -0.0,    0.0,    0.2,    0.1,    0.4,    0.8,    0.6,    0.4,    0.5,    0.4,    0.4,    0.6,    0.5,    0.4,    0.6,    0.7,    0.7,    0.6,    0.9,    0.5,    0.1,  999.0,    0.2,    1.0,    0.9,    0.8,    0.2,    0.1,    0.1,    0.1,    0.1,    0.7,    0.6,    0.8,    0.8,    0.9,    0.9,    0.8,    0.8,  999.0,  999.0,    1.0,  999.0,    0.5,    0.4,    0.6,    0.4,  999.0,    0.0,  999.0,  999.0,  999.0,  999.0,  999.0,  999.0,    0.0,   -0.0,   -0.1,    0.0,    0.0,  999.0,  999.0,  999.0,  999.0,  999.0,  999.0,  999.0,  999.0,  999.0,  999.0,  999.0,  999.0,  999.0,  999.0,  999.0,  999.0,  999.0
2006/06/28 16:00,    0.0,    0.0,    0.0,    0.0,    0.1,    0.3,    0.4,    0.1,    0.3,    0.2,   -0.0,    0.1,    0.2,    0.1,    0.1,    0.0,    0.1,    0.1,    0.1,    0.2,    0.2,    0.1,    0.0,    0.0,    0.0,   -0.1,   -0.1,   -0.0,   -0.0,   -0.0,    0.0,   -0.0,    0.0,    0.0,    0.1,    0.2,    0.2,    0.4,    0.4,    0.5,    0.5,    0.3,  999.0,  999.0,    0.6,    0.3,    0.1,    0.1,    0.6,    0.2,    0.1,  999.0,  999.0,  999.0,  999.0,   -0.0,  999.0,  999.0,  999.0,    0.0,    0.1,   -0.1,    0.0,  999.0,  999.0,  999.0,  999.0,  999.0,  999.0,  999.0,  999.0,  999.0,  999.0,  999.0,  999.0,  999.0,  999.0,  999.0,  999.0,  999.0
2006/06/28 16:10,  999.0,    0.0,   -0.0,   -0.0,    0.1,   -0.0,   -0.1,    0.3,  999.0,  999.0,    0.7,    0.8,    0.5,    0.4,    0.6,    0.5,    0.6,    0.6,    0.5,    0.4,    0.4,    0.3,    0.2,    0.1,    0.1,    0.1,    0.1,    0.0,   -0.0,   -0.0,    0.1,    0.1,    0.1,    0.4,    0.3,    0.1,    0.5,    0.3,    0.0,  999.0,  999.0,    0.2,  999.0,    0.6,    1.1,  999.0,  999.0,  999.0,  999.0,  999.0,  999.0,  999.0,  999.0,  999.0,  999.0,  999.0,  999.0,  999.0,  999.0,  999.0,  999.0,  999.0,  999.0,  999.0,  999.0,  999.0,  999.0,  999.0,  999.0,  999.0,  999.0,  999.0,  999.0,  999.0,  999.0,  999.0,  999.0,  999.0,  999.0,  999.0
2006/06/28 16:20,  999.0,   -0.0,   -0.1,   -0.0,   -0.0,   -0.1,    0.2,    0.5,    0.5,    0.4,    0.4,    1.0,    0.9,    0.8,    0.7,    0.9,    1.0,    1.0,    0.7,    0.8,    0.7,    0.4,    0.1,    0.1,    0.0,    0.1,    0.2,    0.0,    0.0,    0.0,    0.0,    0.1,    0.1,    0.1,    0.0,    0.0,    0.1,    0.1,    0.0,   -0.0,   -0.0,    0.0,    0.3,    0.5,  999.0,    0.5,    0.0,   -0.0,  999.0,    0.0,  999.0,    0.1,    0.1,  999.0,  999.0,    0.0,  999.0,  999.0,  999.0,  999.0,   -0.0,    0.1,  999.0,  999.0,  999.0,  999.0,  999.0,  999.0,  999.0,  999.0,  999.0,  999.0,  999.0,  999.0,  999.0,  999.0,  999.0,  999.0,  999.0,  999.0
2006/06/28 16:30,   -0.0,   -0.0,   -0.0,   -0.1,   -0.2,   -0.1,    0.2,    0.1,    0.0,    0.1,    0.5,    0.7,    0.6,    0.6,    0.6,    0.6,    0.7,    0.9,    0.8,    0.8,    0.7,    0.4,    0.2,    0.1,    0.0,    0.1,    0.1,    0.0,    0.0,    0.0,    0.0,   -0.0,   -0.0,    0.0,   -0.0,    0.0,    0.1,    0.1,    0.1,    0.0,    0.1,   -0.0,    0.3,    0.3,  999.0,    0.4,    0.2,    0.0,   -0.0,    0.0,    0.0,    0.0,  999.0,  999.0,  999.0,  999.0,  999.0,  999.0,  999.0,  999.0,  999.0,   -0.0,  999.0,  999.0,  999.0,  999.0,  999.0,  999.0,  999.0,  999.0,  999.0,  999.0,  999.0,  999.0,  999.0,  999.0,  999.0,  999.0,  999.0,  999.0
2006/06/28 16:40,    0.0,   -0.0,   -0.1,   -0.1,   -0.2,    0.0,    0.1,    0.1,   -0.1,   -0.8,    0.1,    0.1,    0.1,    0.5,    0.3,    0.3,    0.2,    0.2,    0.2,    0.2,    0.2,    0.1,    0.1,    0.0,   -0.0,    0.0,   -0.0,   -0.0,   -0.0,   -0.1,   -0.0,   -0.0,   -0.0,    0.0,    0.0,    0.1,    0.1,    0.1,    0.2,    0.3,    0.0,    0.1,  999.0,  999.0,    0.4,    0.2,   -0.0,   -0.0,    0.0,  999.0,   -0.0,  999.0,  999.0,  999.0,  999.0,  999.0,  999.0,   -0.2,   -0.2,   -0.1,  999.0,  999.0,  999.0,  999.0,   -0.6,   -0.1,  999.0,  999.0,  999.0,   -0.7,  999.0,  999.0,  999.0,  999.0,  999.0,  999.0,  999.0,  999.0,  999.0,  999.0
2006/06/28 16:50,   -0.1,   -0.0,   -0.1,   -0.1,    0.0,    0.1,    0.0,    0.2,    0.3,    0.4,    0.1,    0.2,    0.1,    0.2,    0.1,    0.2,    0.2,    0.1,    0.2,    0.2,    0.3,    0.2,    0.1,    0.0,   -0.0,    0.0,    0.1,    0.1,    0.1,    0.1,    0.1,    0.1,    0.0,    0.0,   -0.0,    0.0,    0.0,   -0.0,  999.0,   -0.1,  999.0,    0.0,   -0.0,    0.1,    0.4,   -0.0,  999.0,  999.0,   -0.0,  999.0,   -0.0,  999.0,  999.0,  999.0,  999.0,  999.0,    0.2,    0.0,    0.2,    0.1,    0.1,    0.1,    0.1,    0.2,  999.0,  999.0,  999.0,  999.0,    0.1,    0.3,    0.4,  999.0,  999.0,  999.0,  999.0,  999.0,  999.0,  999.0,  999.0,  999.0
2006/06/28 17:00,   -0.0,   -0.0,    0.0,    0.0,   -0.1,   -0.1,   -0.1,   -0.1,    0.1,    0.0,   -0.0,   -0.1,   -0.2,   -0.2,   -0.2,   -0.2,   -0.1,   -0.2,   -0.1,   -0.1,   -0.1,   -0.0,   -0.0,    0.0,    0.0,   -0.0,    0.0,    0.0,    0.0,    0.0,    0.0,    0.1,    0.2,    0.3,    0.6,    0.5,    0.6,    0.9,    1.2,    1.0,  999.0,    0.4,  999.0,    0.7,    0.7,    0.7,  999.0,  999.0,    0.0,   -0.0,  999.0,  999.0,  999.0,  999.0,  999.0,    0.0,    0.1,  999.0,    0.3,    0.2,    0.1,  999.0,    0.1,    0.0,    0.1,    0.1,    0.1,   -0.0,   -0.2,   -0.1,    0.0,  999.0,  999.0,  999.0,  999.0,  999.0,  999.0,  999.0,  999.0,  999.0
2006/06/28 17:10,  999.0,   -0.0,    0.0,    0.1,    0.2,    0.4,    0.5,    0.3,    0.5,    0.3,    0.2,    0.3,    0.3,    0.2,    0.2,    0.3,    0.2,    0.2,    0.1,    0.1,    0.2,    0.2,    0.1,    0.0,    0.1,    0.3,    0.3,    0.4,    0.2,    0.1,    0.1,    0.1,    0.2,    0.5,    0.4,    0.7,    0.9,    1.0,    1.0,    1.0,  999.0,    1.4,    1.2,    1.0,    1.1,    1.0,    1.0,  999.0,  999.0,   -0.1,    0.1,  999.0,   -0.0,  999.0,  999.0,  999.0,  999.0,    0.7,    0.6,    0.8,  999.0,    0.7,    0.5,    0.5,    0.6,    0.3,    0.4,    0.4,    0.3,  999.0,  999.0,  999.0,  999.0,  999.0,  999.0,  999.0,  999.0,  999.0,  999.0,  999.0
2006/06/28 17:20,   -0.0,   -0.0,   -0.1,    0.0,    0.1,    0.2,    0.2,    0.2,    0.1,    0.2,    0.2,    0.1,    0.1,    0.0,    0.1,    0.1,    0.2,    0.1,    0.1,    0.1,    0.1,    0.1,    0.1,    0.0,    0.0,    0.1,    0.1,    0.5,    0.5,    0.2,    0.2,    0.5,    0.4,    0.9,    1.0,    1.2,    1.4,    1.6,    1.6,    1.7,    1.6,    1.6,    2.0,  999.0,    1.6,  999.0,  999.0,  999.0,  999.0,  999.0,   -0.0,  999.0,  999.0,  999.0,  999.0,    0.1,    0.8,    0.5,    0.4,    0.4,    0.5,  999.0,   -0.1,    0.2,    0.1,    0.1,   -0.0,    0.0,    0.2,  999.0,  999.0,  999.0,  999.0,  999.0,  999.0,  999.0,  999.0,  999.0,  999.0,  999.0
2006/06/28 17:30,    0.1,    0.0,   -0.0,   -0.0,   -0.1,   -0.1,   -0.1,   -0.3,   -0.2,   -0.3,   -0.2,   -0.3,   -0.2,   -0.1,   -0.1,   -0.2,   -0.1,   -0.1,   -0.0,   -0.0,    0.1,    0.1,    0.1,    0.1,    0.0,    0.0,    0.1,    0.0,   -0.0,   -0.1,   -0.1,   -0.0,   -0.0,    0.0,    0.0,    0.1,    0.2,    0.2,    0.2,    0.3,    0.4,    0.2,    0.1,    0.2,  999.0,    0.0,    0.1,    0.0,  999.0,    0.0,    0.0,  999.0,  999.0,  999.0,    0.1,    0.0,    0.1,    0.1,    0.0,    0.1,    0.2,    0.1,    0.3,    0.4,    0.1,    0.2,    0.1,  999.0,  999.0,  999.0,  999.0,  999.0,  999.0,  999.0,  999.0,  999.0,  999.0,  999.0,  999.0,  999.0
2006/06/28 17:40,    0.0,    0.0,   -0.1,   -0.1,   -0.2,   -0.2,   -0.2,   -0.4,   -0.4,   -0.3,   -0.4,   -0.5,   -0.3,   -0.2,   -0.1,   -0.2,   -0.2,   -0.1,   -0.0,   -0.1,   -0.1,    0.0,    0.0,    0.0,   -0.0,   -0.0,   -0.0,   -0.1,   -0.0,   -0.1,   -0.1,   -0.0,   -0.1,   -0.0,   -0.1,    0.0,    0.1,    0.1,    0.1,    0.1,    0.1,   -0.1,    0.4,  999.0,  999.0,    0.3,    0.1,   -0.1,    0.0,    0.0,    0.0,   -0.0,  999.0,  999.0,   -0.0,    0.0,   -0.0,   -0.1,   -0.1,   -0.1,    0.0,   -0.1,    0.1,    0.0,  999.0,  999.0,   -0.3,   -0.3,  999.0,   -0.3,  999.0,  999.0,  999.0,  999.0,  999.0,  999.0,  999.0,  999.0,  999.0,  999.0
2006/06/28 17:50,   -0.0,    0.0,   -0.0,   -0.0,   -0.1,    0.0,   -0.0,   -0.0,    0.0,    0.0,   -0.1,   -0.1,    0.0,   -0.0,    0.0,    0.1,    0.1,    0.2,    0.2,    0.1,    0.2,    0.2,    0.1,    0.0,    0.0,    0.0,   -0.0,   -0.0,   -0.0,   -0.0,   -0.1,   -0.2,   -0.1,   -0.1,   -0.2,   -0.1,   -0.0,   -0.0,    0.0,    0.1,   -0.0,   -0.1,    0.2,    0.2,    0.1,    0.3,    0.3,    0.3,    0.1,    0.0,  999.0,  999.0,  999.0,    0.1,    0.1,    0.1,    0.0,    0.0,    0.0,    0.1,    0.3,    0.2,    0.3,    0.5,    0.1,    0.0,    0.1,   -0.2,  999.0,    0.2,  999.0,  999.0,  999.0,  999.0,  999.0,  999.0,  999.0,  999.0,  999.0,  999.0
2006/06/28 18:00,    0.0,    0.0,    0.0,    0.0,    0.1,    0.2,    0.1,    0.2,    0.1,    0.2,    0.2,    0.2,    0.2,    0.1,    0.1,    0.1,    0.0,    0.1,    0.1,    0.1,    0.2,    0.3,    0.3,    0.3,    0.1,    0.3,    0.4,    0.4,    0.5,    0.5,    0.6,    0.5,    0.4,    0.5,    0.6,    0.6,    0.6,    0.6,    0.7,    0.5,    0.6,    0.5,    0.5,    0.5,    0.5,    0.5,    0.5,    0.5,    0.5,   -0.1,    0.4,  999.0,    0.3,    0.3,    0.2,    0.1,    0.1,    0.0,   -0.0,   -0.1,   -0.1,   -0.2,   -0.2,   -0.2,   -0.1,   -0.2,   -0.1,   -0.2,   -0.3,   -0.2,    0.0,   -0.0,  999.0,  999.0,  999.0,  999.0,  999.0,    0.1,  999.0,  999.0
2006/06/28 18:10,   -0.0,    0.0,   -0.0,   -0.0,   -0.1,   -0.1,   -0.1,   -0.0,   -0.0,    0.2,    0.1,    0.0,    0.0,    0.1,    0.1,    0.1,    0.0,    0.0,    0.1,   -0.0,    0.1,    0.2,    0.1,    0.1,    0.1,    0.2,    0.3,    0.1,    0.2,    0.3,    0.1,    0.1,    0.1,    0.0,    0.1,   -0.0,   -0.0,   -0.0,   -0.1,   -0.1,   -0.1,    0.0,   -0.1,    0.0,    0.3,    0.0,    0.1,    0.1,    0.2,  999.0,  999.0,  999.0,    0.0,    0.0,   -0.2,   -0.2,   -0.3,   -0.3,   -0.2,   -0.3,   -0.3,   -0.3,   -0.1,   -0.1,  999.0,   -0.5,   -0.3,   -0.6,   -0.6,   -0.4,   -0.5,   -0.7,  999.0,  999.0,  999.0,  999.0,  999.0,  999.0,  999.0,  999.0
2006/06/28 18:20,    0.0,   -0.0,   -0.0,   -0.1,   -0.5,   -0.6,   -0.6,   -0.5,   -0.4,   -0.5,   -0.5,   -0.6,   -0.7,   -0.7,   -0.8,   -0.8,   -0.9,   -0.8,   -0.8,   -0.7,   -0.7,   -0.6,   -0.4,   -0.2,   -0.1,   -0.0,    0.0,    0.0,    0.1,    0.1,    0.1,    0.2,    0.1,    0.1,    0.1,    0.1,    0.0,   -0.0,   -0.1,   -0.1,   -0.1,   -0.1,   -0.1,   -0.1,   -0.1,   -0.1,   -0.1,   -0.1,  999.0,  999.0,  999.0,   -0.3,   -0.2,   -0.2,   -0.2,   -0.1,   -0.1,    0.0,    0.0,    0.0,    0.1,   -0.1,    0.1,    0.0,   -0.0,   -0.0,   -0.2,   -0.2,   -0.4,  999.0,  999.0,   -0.5,  999.0,  999.0,  999.0,  999.0,  999.0,  999.0,  999.0,  999.0
2006/06/28 18:30,  999.0,   -0.0,   -0.0,   -0.1,   -0.4,   -0.6,   -0.6,   -0.7,   -0.6,   -0.6,   -0.7,   -0.9,   -0.9,   -0.9,   -0.8,   -0.8,   -0.8,   -0.8,   -0.8,   -0.6,   -0.6,   -0.5,   -0.3,   -0.2,   -0.1,   -0.2,   -0.1,    0.0,    0.2,    0.2,    0.1,    0.1,    0.1,    0.2,    0.2,    0.1,    0.0,    0.1,    0.1,    0.0,    0.1,    0.2,    0.1,    0.2,   -0.1,   -0.2,   -0.3,   -0.4,   -0.6,   -0.7,   -0.9,   -0.7,   -0.7,   -0.6,   -0.6,   -0.6,   -0.5,   -0.5,   -0.4,   -0.4,   -0.5,   -0.3,   -0.3,   -0.3,   -0.3,   -0.2,   -0.2,   -0.2,   -0.3,   -0.3,   -0.1,   -0.2,  999.0,  999.0,  999.0,  999.0,  999.0,  999.0,  999.0,  999.0
2006/06/28 18:40,    0.0,    0.0,   -0.0,   -0.1,   -0.2,   -0.5,   -0.4,   -0.4,   -0.3,   -0.3,   -0.4,   -0.5,   -0.4,   -0.5,   -0.4,   -0.4,   -0.5,   -0.4,   -0.4,   -0.4,   -0.4,   -0.2,   -0.0,   -0.1,   -0.0,   -0.1,   -0.1,   -0.0,   -0.0,   -0.0,    0.1,    0.2,    0.1,    0.2,    0.1,    0.2,    0.2,    0.2,    0.2,    0.1,    0.0,    0.1,    0.0,    0.1,  999.0,   -0.2,    0.1,    0.1,   -0.0,   -0.0,   -0.0,    0.0,   -0.0,    0.2,    0.2,    0.3,    0.4,    0.5,    0.5,    0.5,    0.5,    0.5,    0.7,    0.3,    0.3,    0.4,    0.3,    0.4,    0.9,    0.6,    0.6,    0.2,  999.0,  999.0,  999.0,  999.0,  999.0,  999.0,  999.0,  999.0
2006/06/28 18:50,   -0.0,    0.0,    0.0,    0.0,    0.1,    0.1,   -0.2,    0.1,    0.1,    0.1,    0.1,    0.2,    0.2,    0.2,    0.2,    0.2,    0.3,    0.3,    0.2,    0.1,   -0.0,   -0.1,   -0.1,   -0.2,   -0.1,   -0.4,   -0.5,   -0.5,   -0.6,   -0.6,   -0.6,   -0.6,   -0.4,   -0.4,   -0.4,   -0.3,   -0.4,   -0.4,   -0.3,   -0.4,   -0.4,   -0.4,   -0.1,   -0.1,    0.2,    0.2,    0.4,    0.5,    0.6,    0.4,    0.7,    0.6,    0.6,    0.5,    0.7,    0.7,    0.8,    0.6,    0.5,    0.3,    0.3,    0.2,    0.2,    0.4,    0.4,    0.5,    0.7,    0.7,    0.8,    0.8,    1.0,  999.0,  999.0,  999.0,  999.0,  999.0,  999.0,  999.0,  999.0,  999.0
2006/06/28 19:00,  999.0,  999.0,   -0.0,   -0.0,   -0.2,   -0.1,   -0.1,    0.0,    0.0,    0.0,   -0.0,    0.0,    0.1,    0.0,   -0.0,    0.1,    0.4,    0.5,    0.5,    0.6,    0.7,    0.7,    0.3,    0.1,    0.1,    0.2,    0.4,    0.3,    0.2,    0.1,    0.1,    0.2,    0.2,    0.1,    0.1,    0.1,    0.1,   -0.1,   -0.0,   -0.1,   -0.0,   -0.1,   -0.1,   -0.1,   -0.2,   -0.1,   -0.2,   -0.1,   -0.1,  999.0,  999.0,    0.1,    0.3,    0.2,    0.1,    0.3,    0.1,    0.1,    0.2,    0.2,    0.1,    0.1,    0.2,    0.1,    0.2,    0.3,    0.3,    0.5,    0.6,  999.0,  999.0,  999.0,  999.0,  999.0,  999.0,  999.0,  999.0,  999.0,  999.0,  999.0
2006/06/28 19:10,    0.0,    0.0,   -0.0,    0.0,    0.1,    0.1,    0.1,    0.3,    0.3,    0.4,    0.4,    0.5,    0.4,    0.4,    0.4,    0.5,    0.5,    0.8,    0.8,    1.1,    1.0,    0.9,    0.6,    0.1,    0.0,    0.6,    0.5,    0.4,    0.4,    0.2,    0.1,   -0.0,   -0.0,   -0.0,   -0.1,   -0.1,   -0.0,   -0.3,   -0.4,   -0.2,   -0.2,   -0.3,   -0.3,   -0.5,   -0.5,   -0.5,   -0.5,   -0.6,   -0.6,   -0.4,  999.0,   -0.6,   -0.5,   -0.5,   -0.4,   -0.4,   -0.3,   -0.2,   -0.2,   -0.2,   -0.2,   -0.1,   -0.0,    0.0,    0.1,    0.1,    0.1,  999.0,  999.0,  999.0,  999.0,  999.0,  999.0,  999.0,  999.0,  999.0,  999.0,  999.0,  999.0,  999.0
2006/06/28 19:20,  999.0,    0.0,    0.2,    0.1,   -0.0,    0.0,    0.0,    0.0,    0.0,    0.1,    0.2,    0.2,    0.3,    0.5,    0.5,    0.5,    0.4,    0.4,    0.5,    0.4,    0.3,    0.3,    0.2,    0.1,    0.0,    0.1,   -0.0,   -0.0,   -0.1,   -0.1,   -0.2,   -0.4,   -0.3,   -0.5,   -0.5,   -0.5,   -0.6,   -0.6,   -0.6,   -0.6,   -0.6,   -0.6,   -0.5,   -0.5,   -0.5,   -0.5,   -0.4,   -0.4,   -0.4,   -0.5,   -0.4,   -0.3,   -0.2,   -0.2,   -0.2,   -0.1,    0.0,   -0.1,   -0.0,   -0.1,   -0.0,    0.0,    0.0,    0.1,    0.2,    0.3,    0.3,  999.0,  999.0,  999.0,  999.0,  999.0,  999.0,  999.0,  999.0,  999.0,  999.0,  999.0,  999.0,  999.0
2006/06/28 19:30,    0.0,    0.0,    0.1,    0.2,    0.1,    0.0,    0.3,    0.2,    0.3,    0.3,    0.4,    0.5,    0.7,    1.0,    1.2,    1.1,    0.9,    0.6,    0.7,    0.6,    0.4,    0.3,    0.1,    0.2,    0.0,    0.1,    0.0,   -0.1,   -0.2,   -0.1,   -0.1,   -0.3,   -0.4,   -0.5,   -0.5,   -0.5,   -0.4,   -0.4,   -0.3,   -0.4,   -0.4,   -0.3,   -0.3,   -0.2,   -0.3,   -0.4,   -0.4,   -0.3,   -0.2,   -0.1,    0.0,    0.0,   -0.0,    0.1,    0.2,    0.2,    0.1,    0.1,    0.2,    0.2,    0.3,    0.4,    0.5,  999.0,  999.0,  999.0,  999.0,  999.0,  999.0,  999.0,  999.0,  999.0,  999.0,  999.0,  999.0,  999.0,  999.0,  999.0,  999.0,  999.0
2006/06/28 19:40,    0.1,    0.0,    0.1,    0.3,    0.4,    0.2,    0.2,    0.2,    0.1,    0.2,    0.2,    0.1,    0.5,    0.3,    0.4,    0.4,    0.3,    0.2,    0.2,    0.2,   -0.1,   -0.0,   -0.0,   -0.0,   -0.0,   -0.2,   -0.3,   -0.3,   -0.2,   -0.4,   -0.3,   -0.5,   -0.6,   -0.6,   -0.7,   -0.8,   -0.7,   -0.6,   -0.6,   -0.6,   -0.6,   -0.5,   -0.5,   -0.5,   -0.4,   -0.4,   -0.4,   -0.4,   -0.4,   -0.3,   -0.2,   -0.2,    0.0,    0.0,   -0.0,    0.0,    0.2,    0.2,    0.2,    0.3,    0.3,    0.4,    0.5,    0.4,  999.0,    0.7,  999.0,  999.0,  999.0,  999.0,    0.7,    0.9,    1.0,  999.0,  999.0,  999.0,  999.0,  999.0,  999.0,  999.0
2006/06/28 19:50,    0.0,    0.0,    0.1,    0.3,    0.0,   -0.1,    0.0,   -0.0,   -0.1,   -0.1,   -0.1,   -0.1,   -0.2,   -0.2,   -0.1,   -0.1,   -0.1,   -0.1,   -0.1,   -0.1,   -0.2,   -0.3,   -0.2,   -0.2,   -0.1,   -0.5,   -0.5,   -0.5,   -0.5,   -0.5,   -0.4,   -0.6,   -0.7,   -0.7,   -0.8,   -0.7,   -0.7,   -0.7,   -0.6,   -0.6,   -0.5,   -0.5,   -0.5,   -0.5,   -0.5,   -0.5,   -0.4,   -0.4,   -0.4,   -0.3,   -0.2,   -0.3,   -0.2,   -0.1,   -0.0,    0.1,    0.0,    0.1,    0.1,    0.3,    0.4,    0.5,    0.6,    0.5,  999.0,  999.0,  999.0,  999.0,  999.0,  999.0,  999.0,    0.7,    0.6,    0.6,    0.6,    0.7,    0.9,  999.0,  999.0,  999.0
2006/06/28 20:00,    0.0,    0.0,    0.2,   -0.0,    0.1,    0.2,    0.1,    0.1,    0.2,    0.2,    0.2,    0.1,    0.1,    0.0,    0.0,    0.1,    0.1,   -0.0,   -0.0,   -0.0,   -0.0,   -0.0,   -0.1,   -0.1,   -0.1,   -0.3,   -0.4,   -0.4,   -0.4,   -0.4,   -0.3,   -0.4,   -0.4,   -0.4,   -0.6,   -0.6,   -0.7,   -0.6,   -0.6,   -0.6,   -0.6,   -0.6,   -0.6,   -0.7,   -0.6,   -0.5,   -0.5,   -0.4,   -0.4,   -0.3,   -0.3,   -0.3,   -0.1,   -0.1,   -0.0,    0.0,    0.0,    0.2,    0.4,    0.1,    0.1,    0.3,    0.3,  999.0,  999.0,    0.6,    0.8,    0.7,    0.8,  999.0,    0.6,    0.7,    0.6,    0.7,    0.6,    0.7,  999.0,  999.0,  999.0,  999.0
2006/06/28 20:10,   -0.0,    0.1,    0.2,    0.0,    0.2,    0.3,    0.3,    0.5,    0.3,    0.4,    0.4,    0.4,    0.3,    0.3,    0.1,   -0.1,    0.1,    0.2,    0.1,    0.1,    0.1,    0.1,    0.0,    0.0,    0.0,   -0.1,   -0.1,   -0.2,   -0.2,   -0.1,   -0.1,   -0.2,   -0.3,   -0.3,   -0.3,   -0.4,   -0.4,   -0.4,   -0.4,   -0.4,   -0.4,   -0.5,   -0.4,   -0.4,   -0.4,   -0.5,   -0.4,   -0.5,   -0.3,   -0.3,   -0.2,   -0.2,   -0.2,   -0.0,   -0.1,   -0.0,    0.0,   -0.0,  999.0,  999.0,  999.0,    0.3,    0.2,    0.5,    0.6,    0.6,    0.6,    0.7,  999.0,  999.0,    0.7,    0.7,    0.7,    0.7,    0.8,    0.8,    0.8,  999.0,  999.0,  999.0
2006/06/28 20:20,   -0.1,    0.0,    0.2,    0.2,    0.2,    0.2,    0.3,    0.6,    0.5,    0.3,    0.4,    0.3,    0.1,    0.1,    0.1,   -0.1,   -0.1,   -0.0,   -0.1,   -0.2,   -0.1,   -0.1,   -0.1,   -0.0,    0.0,   -0.1,   -0.2,   -0.2,   -0.2,   -0.3,   -0.3,   -0.3,   -0.3,   -0.3,   -0.3,   -0.3,   -0.3,   -0.3,   -0.4,   -0.4,   -0.3,   -0.4,   -0.4,   -0.4,   -0.4,   -0.4,   -0.3,   -0.2,   -0.2,   -0.2,   -0.2,   -0.1,    0.1,    0.1,    0.1,    0.2,  999.0,  999.0,  999.0,  999.0,    0.0,    0.3,    0.2,    0.3,    0.4,    0.5,    0.5,    0.6,    0.5,    0.5,    0.5,    0.8,    0.8,    0.5,    0.6,    0.7,    0.6,  999.0,  999.0,  999.0
2006/06/28 20:30,    0.1,   -0.0,    0.0,    0.1,    0.1,    0.1,    0.1,  999.0,    0.3,    0.2,    0.2,    0.2,    0.0,    0.1,    0.1,    0.0,   -0.0,   -0.0,   -0.0,   -0.0,    0.1,    0.1,    0.0,    0.0,    0.0,   -0.0,   -0.0,    0.0,    0.1,    0.2,    0.2,    0.2,    0.2,    0.2,    0.3,    0.2,    0.3,    0.3,    0.3,    0.2,    0.2,    0.2,    0.0,    0.0,    0.0,   -0.0,   -0.2,   -0.0,   -0.0,   -0.0,    0.1,    0.0,    0.0,  999.0,    0.3,    0.4,    0.5,    0.4,    0.6,    0.5,    0.3,    0.2,    0.4,    0.5,    0.3,    0.5,    0.7,    0.7,    0.6,    0.7,    0.8,    0.7,    0.8,    0.7,    0.7,    0.8,    0.7,    1.0,    1.3,  999.0
2006/06/28 20:40,   -0.0,    0.0,    0.0,   -0.0,    0.2,    0.3,    0.5,    0.7,    0.6,    0.5,    0.4,    0.5,    0.3,    0.5,    0.5,    0.4,    0.5,    0.5,    0.6,    0.6,    0.6,    0.5,    0.2,    0.1,    0.0,    0.2,    0.3,    0.3,    0.4,    0.4,    0.4,    0.4,    0.2,    0.3,    0.1,    0.2,    0.2,    0.1,    0.0,   -0.1,   -0.1,   -0.1,   -0.1,   -0.1,   -0.1,   -0.1,   -0.1,   -0.0,   -0.0,   -0.0,    0.0,    0.0,   -0.1,    0.1,    0.1,    0.2,    0.2,    0.3,    0.2,    0.2,    0.2,    0.3,    0.4,    0.2,    0.3,  999.0,  999.0,  999.0,  999.0,    0.6,    0.5,    0.4,    0.3,    0.5,    0.5,    0.6,    0.6,    0.8,    0.7,  999.0
2006/06/28 20:50,   -0.0,   -0.0,    0.1,   -0.0,    0.2,    0.2,    0.3,    0.5,    0.3,    0.3,    0.3,    0.2,    0.2,    0.2,    0.1,    0.1,    0.2,    0.2,    0.2,    0.1,    0.1,    0.1,    0.1,    0.0,   -0.0,    0.0,    0.2,    0.0,    0.1,   -0.1,   -0.1,   -0.2,   -0.2,   -0.2,   -0.2,   -0.3,   -0.4,   -0.5,   -0.5,   -0.5,   -0.5,   -0.5,   -0.4,   -0.4,   -0.3,   -0.3,   -0.2,   -0.3,   -0.2,   -0.3,    0.1,    0.1,    0.0,   -0.0,    0.2,    0.1,    0.2,    0.2,    0.3,    0.3,    0.3,    0.3,    0.4,    0.5,    0.5,    0.6,  999.0,  999.0,  999.0,    0.6,    0.8,    0.8,    0.8,    0.3,    0.3,    0.5,    0.6,    0.6,  999.0,  999.0
2006/06/28 21:00,    0.0,   -0.0,   -0.1,   -0.2,   -0.0,   -0.1,   -0.2,   -0.1,   -0.1,   -0.1,   -0.1,   -0.1,   -0.2,   -0.3,   -0.2,   -0.1,   -0.1,   -0.0,   -0.0,    0.0,    0.1,    0.2,    0.2,    0.2,    0.1,    0.3,    0.5,    0.4,    0.5,    0.5,    0.5,    0.4,    0.6,    0.5,    0.3,    0.2,    0.2,    0.1,    0.1,    0.1,   -0.0,   -0.0,   -0.1,   -0.1,   -0.2,   -0.1,   -0.2,   -0.1,   -0.2,   -0.2,   -0.1,   -0.1,   -0.1,   -0.1,   -0.1,   -0.1,    0.0,    0.0,   -0.0,  999.0,    0.2,    0.3,    0.4,    0.6,    0.5,    0.6,    0.5,  999.0,    0.5,    0.7,    0.9,    0.8,    0.8,  999.0,    0.6,    0.5,    0.6,    0.8,  999.0,  999.0
2006/06/28 21:10,   -0.0,   -0.0,   -0.0,   -0.2,   -0.3,   -0.3,   -0.4,   -0.3,   -0.2,   -0.1,  999.0,    0.0,   -0.1,   -0.1,   -0.0,    0.1,    0.1,    0.1,    0.1,    0.1,    0.1,    0.2,    0.1,    0.1,    0.1,    0.4,    0.5,    0.4,    0.6,    0.6,    0.6,    0.5,    0.6,    0.4,    0.4,    0.3,    0.3,    0.1,    0.1,    0.1,    0.0,    0.1,    0.1,    0.2,    0.1,    0.2,    0.2,    0.2,    0.3,    0.3,    0.4,    0.4,    0.3,    0.4,    0.4,    0.5,    0.5,    0.4,    0.4,    0.4,    0.4,    0.5,    0.5,    0.5,    0.6,    0.4,    0.4,    0.5,    0.6,    0.5,    0.5,    0.6,    0.2,    0.3,    0.2,    0.4,    0.6,    0.7,    0.7,  999.0
2006/06/28 21:20,   -0.0,    0.0,   -0.1,    0.1,   -0.0,   -0.1,   -0.2,   -0.1,   -0.1,   -0.1,   -0.0,   -0.0,   -0.0,   -0.1,   -0.1,   -0.1,   -0.1,   -0.1,   -0.1,   -0.2,   -0.2,   -0.1,   -0.1,   -0.0,   -0.1,   -0.0,   -0.1,   -0.2,   -0.2,   -0.2,   -0.2,   -0.3,   -0.3,   -0.3,   -0.4,   -0.3,   -0.5,   -0.4,   -0.4,   -0.4,   -0.4,   -0.3,   -0.3,   -0.3,   -0.3,   -0.3,   -0.2,   -0.2,   -0.2,   -0.1,   -0.2,   -0.1,   -0.0,   -0.0,    0.1,    0.1,    0.2,    0.3,    0.1,    0.1,    0.1,    0.1,    0.0,    0.0,    0.1,    0.1,    0.1,   -0.0,    0.1,   -0.0,   -0.0,    0.1,    0.2,    0.0,   -0.0,    0.1,    0.2,    0.3,  999.0,  999.0
2006/06/28 21:30,    0.0,   -0.0,   -0.0,    0.0,   -0.0,    0.1,    0.1,    0.0,    0.1,    0.1,    0.1,    0.1,    0.1,    0.0,   -0.0,   -0.1,   -0.1,   -0.1,   -0.1,   -0.1,   -0.1,   -0.1,   -0.1,   -0.1,   -0.0,   -0.2,   -0.2,   -0.3,   -0.3,   -0.2,   -0.3,   -0.3,   -0.3,   -0.2,   -0.3,   -0.4,   -0.5,   -0.5,   -0.6,   -0.7,   -0.6,   -0.6,   -0.5,   -0.5,   -0.5,   -0.5,   -0.5,   -0.5,   -0.5,   -0.5,   -0.4,   -0.5,   -0.3,   -0.2,   -0.2,   -0.2,   -0.2,   -0.0,    0.0,    0.0,    0.1,   -0.0,   -0.1,   -0.0,   -0.0,   -0.0,    0.0,   -0.0,    0.1,    0.0,    0.0,    0.1,  999.0,    0.1,    0.1,    0.3,    0.3,  999.0,  999.0,  999.0
2006/06/28 21:40,    0.0,    0.0,    0.0,   -0.0,    0.2,    0.1,    0.2,    0.2,    0.2,    0.2,    0.1,    0.1,    0.1,   -0.0,   -0.1,   -0.1,   -0.0,   -0.2,   -0.1,   -0.3,   -0.2,   -0.1,   -0.0,   -0.0,   -0.1,   -0.0,   -0.1,   -0.0,   -0.0,   -0.1,   -0.1,   -0.1,   -0.1,   -0.1,    0.0,    0.0,   -0.0,   -0.0,   -0.1,   -0.0,    0.1,    0.0,    0.0,   -0.0,   -0.0,   -0.1,   -0.2,   -0.1,   -0.1,   -0.3,   -0.1,   -0.1,    0.0,   -0.0,    0.2,    0.2,    0.1,    0.3,    0.0,    0.2,    0.0,    0.3,    0.5,  999.0,  999.0,    0.2,    0.3,  999.0,  999.0,    0.0,    0.2,    0.1,  999.0,  999.0,    0.2,    0.2,    0.2,  999.0,  999.0,  999.0
2006/06/28 21:50,   -0.0,    0.0,    0.0,   -0.0,   -0.1,   -0.1,   -0.1,   -0.2,   -0.2,   -0.3,   -0.3,   -0.4,   -0.5,   -0.5,   -0.4,   -0.4,   -0.3,   -0.3,   -0.3,   -0.3,   -0.2,   -0.2,   -0.2,   -0.1,   -0.1,   -0.2,   -0.2,   -0.1,   -0.2,   -0.1,   -0.1,   -0.1,   -0.0,   -0.1,    0.1,    0.1,    0.1,    0.1,    0.1,    0.0,    0.0,    0.0,    0.0,    0.2,    0.1,    0.1,    0.2,    0.2,    0.1,    0.2,    0.1,    0.2,    0.4,    0.3,    0.2,    0.2,    0.3,    0.3,    0.2,    0.4,    0.4,  999.0,    0.3,    0.2,    0.3,    0.2,    0.0,  999.0,    0.1,    0.0,   -0.1,  999.0,  999.0,    0.1,    0.1,    0.2,    0.4,  999.0,  999.0,  999.0
2006/06/28 22:00,    0.0,   -0.0,    0.0,    0.0,    0.0,    0.0,   -0.1,   -0.0,    0.0,   -0.1,   -0.1,   -0.2,   -0.2,   -0.2,   -0.2,   -0.1,   -0.1,   -0.1,   -0.2,   -0.2,   -0.2,   -0.2,   -0.1,    0.0,   -0.0,    0.0,    0.1,    0.1,    0.1,    0.0,    0.0,    0.0,    0.1,    0.1,    0.1,    0.1,    0.1,    0.1,    0.1,    0.1,    0.1,    0.1,   -0.0,    0.1,    0.1,    0.2,    0.1,    0.0,    0.1,    0.1,    0.1,    0.1,    0.2,    0.1,    0.1,    0.2,    0.1,    0.1,    0.1,    0.0,    0.2,  999.0,   -0.1,    0.1,    0.2,    0.2,    0.2,    0.3,    0.4,    0.4,  999.0,  999.0,    0.2,    0.3,    0.2,  999.0,  999.0,  999.0,    0.3,    0.3
2006/06/28 22:10,   -0.0,    0.0,   -0.0,   -0.1,   -0.1,   -0.2,   -0.3,   -0.1,   -0.1,   -0.1,   -0.2,   -0.1,   -0.1,    0.0,   -0.0,    0.0,    0.0,    0.1,    0.1,    0.2,    0.2,    0.2,    0.1,   -0.0,    0.0,    0.1,    0.2,    0.1,    0.1,    0.1,    0.1,    0.1,    0.0,   -0.0,    0.0,    0.0,    0.0,    0.2,    0.1,    0.1,    0.2,    0.1,    0.1,    0.2,    0.2,    0.2,    0.2,    0.2,   -0.0,  999.0,  999.0,  999.0,    0.1,    0.1,    0.1,    0.1,    0.0,    0.1,    0.0,    0.1,  999.0,    0.0,    0.0,  999.0,    0.1,    0.0,    0.0,    0.1,    0.2,    0.2,  999.0,  999.0,  999.0,  999.0,  999.0,  999.0,  999.0,    0.3,  999.0,  999.0
2006/06/28 22:20,    0.0,    0.0,   -0.0,    0.0,   -0.2,   -0.1,   -0.2,   -0.2,   -0.0,   -0.0,   -0.2,   -0.1,   -0.1,   -0.2,   -0.1,   -0.2,   -0.2,   -0.1,   -0.1,   -0.1,   -0.1,  999.0,   -0.0,   -0.1,   -0.1,   -0.0,   -0.0,   -0.1,   -0.0,   -0.0,    0.0,    0.1,    0.1,    0.2,    0.2,    0.2,    0.2,    0.1,    0.1,    0.1,    0.2,    0.1,    0.2,    0.1,    0.2,    0.2,    0.2,    0.2,    0.0,   -0.0,    0.1,    0.0,   -0.1,   -0.1,   -0.2,   -0.2,   -0.2,   -0.2,   -0.2,  999.0,  999.0,   -0.1,   -0.0,    0.1,    0.1,    0.1,    0.2,    0.1,    0.2,    0.3,    0.5,    0.5,    0.2,  999.0,    0.2,    0.1,    0.1,    0.2,  999.0,  999.0
2006/06/28 22:30,    0.1,   -0.0,   -0.1,   -0.1,   -0.3,   -0.2,   -0.2,   -0.3,    0.0,    0.1,   -0.0,   -0.0,    0.0,   -0.0,   -0.0,    0.0,    0.0,   -0.0,    0.0,    0.1,    0.1,    0.1,    0.1,    0.1,   -0.0,    0.1,    0.1,    0.1,    0.1,    0.1,    0.0,    0.0,    0.0,    0.1,    0.1,    0.1,    0.1,    0.1,    0.1,    0.1,    0.2,    0.1,    0.1,    0.1,    0.1,    0.1,    0.1,    0.0,    0.1,  999.0,  999.0,  999.0,    0.4,    0.3,    0.2,    0.2,    0.1,    0.0,    0.1,  999.0,  999.0,  999.0,    0.1,    0.0,    0.0,    0.1,   -0.1,   -0.1,   -0.1,    0.0,  999.0,  999.0,  999.0,  999.0,    0.1,    0.2,  999.0,  999.0,  999.0,  999.0
2006/06/28 22:40,    0.0,    0.0,    0.0,    0.0,   -0.1,  999.0,  999.0,   -0.2,   -0.2,   -0.3,   -0.3,   -0.3,   -0.4,   -0.4,   -0.4,   -0.4,   -0.3,   -0.3,   -0.3,   -0.2,   -0.1,   -0.1,   -0.0,    0.0,    0.0,    0.1,    0.1,    0.1,    0.1,    0.1,    0.1,   -0.1,   -0.2,   -0.2,   -0.2,   -0.1,   -0.1,   -0.1,   -0.0,   -0.0,   -0.1,    0.1,    0.1,    0.1,    0.1,    0.2,    0.2,    0.2,    0.3,    0.3,  999.0,  999.0,  999.0,    0.5,    0.4,    0.4,    0.3,    0.3,    0.3,    0.2,  999.0,  999.0,  999.0,    0.1,    0.1,   -0.1,   -0.1,    0.1,    0.2,    0.3,  999.0,  999.0,    0.1,    0.1,  999.0,  999.0,  999.0,  999.0,  999.0,  999.0
2006/06/28 22:50,    0.1,   -0.0,   -0.0,   -0.0,   -0.0,   -0.0,   -0.2,   -0.2,   -0.1,   -0.1,    0.0,   -0.0,   -0.1,   -0.1,   -0.1,   -0.1,   -0.1,   -0.1,   -0.1,   -0.1,   -0.1,   -0.0,   -0.0,    0.0,   -0.0,   -0.1,   -0.1,   -0.1,   -0.1,   -0.2,   -0.3,   -0.3,   -0.4,   -0.4,   -0.4,   -0.4,   -0.5,   -0.5,   -0.4,   -0.3,   -0.2,   -0.2,   -0.1,   -0.1,   -0.0,   -0.1,   -0.1,   -0.0,    0.0,    0.1,    0.1,    0.2,    0.3,    0.3,    0.4,    0.3,    0.4,    0.3,    0.3,    0.3,  999.0,  999.0,  999.0,  999.0,    0.1,    0.2,    0.2,    0.2,    0.2,    0.2,  999.0,  999.0,  999.0,    0.2,  999.0,  999.0,  999.0,  999.0,  999.0,  999.0
2006/06/28 23:00,    0.1,    0.0,    0.0,    0.0,    0.1,    0.2,    0.1,    0.1,    0.2,    0.2,    0.3,    0.3,    0.3,    0.3,    0.3,    0.2,    0.1,    0.1,    0.0,   -0.0,   -0.1,   -0.1,   -0.0,   -0.0,   -0.0,   -0.1,   -0.0,   -0.0,    0.0,   -0.0,   -0.0,    0.1,    0.1,    0.1,    0.1,    0.1,    0.2,    0.1,    0.1,    0.1,  999.0,    0.0,    0.1,    0.1,    0.2,    0.1,    0.1,    0.1,    0.2,    0.2,    0.2,    0.2,    0.3,    0.2,    0.2,    0.2,    0.2,    0.2,    0.2,    0.2,  999.0,  999.0,  999.0,    0.1,    0.2,    0.4,    0.2,    0.1,    0.2,    0.2,  999.0,    0.2,  999.0,  999.0,  999.0,  999.0,  999.0,  999.0,  999.0,  999.0
2006/06/28 23:10,    0.1,    0.0,    0.1,    0.1,    0.1,    0.2,    0.1,    0.1,    0.0,    0.0,    0.1,    0.1,    0.1,    0.1,    0.0,    0.1,    0.1,   -0.0,   -0.1,   -0.2,   -0.0,    0.0,    0.0,   -0.0,    0.0,    0.0,   -0.0,   -0.0,    0.1,    0.1,    0.2,    0.2,    0.2,    0.2,    0.2,    0.2,    0.2,    0.1,    0.2,    0.2,    0.2,    0.2,    0.1,    0.1,    0.1,    0.1,    0.2,  999.0,    0.2,  999.0,    0.3,    0.3,    0.2,    0.2,    0.3,  999.0,    0.2,    0.1,    0.2,    0.1,  999.0,  999.0,  999.0,  999.0,  999.0,    0.1,    0.2,    0.1,    0.1,  999.0,  999.0,    0.1,    0.3,  999.0,  999.0,  999.0,  999.0,  999.0,  999.0,  999.0
2006/06/28 23:20,    0.1,    0.0,    0.0,   -0.0,   -0.0,   -0.0,   -0.1,   -0.0,   -0.0,   -0.1,    0.0,   -0.0,   -0.0,    0.0,    0.1,    0.0,    0.0,    0.1,    0.1,    0.1,    0.1,    0.1,    0.1,    0.1,    0.1,    0.1,    0.1,    0.0,    0.1,    0.1,    0.0,   -0.0,   -0.1,   -0.1,   -0.0,   -0.0,    0.0,    0.0,    0.0,    0.1,  999.0,  999.0,    0.0,    0.1,   -0.0,    0.1,    0.0,   -0.0,   -0.0,  999.0,    0.0,   -0.0,    0.0,    0.1,  999.0,  999.0,    0.3,    0.3,    0.3,    0.2,  999.0,  999.0,  999.0,    0.1,    0.1,    0.1,    0.2,   -0.1,    0.0,    0.2,   -0.1,   -0.1,   -0.1,  999.0,  999.0,  999.0,  999.0,  999.0,  999.0,  999.0
2006/06/28 23:30,    0.0,   -0.0,    0.0,   -0.1,   -0.1,   -0.2,   -0.1,   -0.2,   -0.2,   -0.2,   -0.2,   -0.2,   -0.4,   -0.2,   -0.2,   -0.2,    0.0,   -0.0,   -0.2,    0.1,   -0.1,   -0.0,   -0.1,   -0.0,   -0.0,   -0.1,   -0.0,   -0.0,   -0.0,    0.1,    0.2,    0.1,    0.1,    0.1,    0.1,    0.1,    0.1,    0.1,    0.2,  999.0,   -0.0,   -0.0,    0.1,    0.1,    0.2,    0.2,    0.2,    0.2,    0.3,    0.2,    0.3,    0.3,    0.3,    0.4,  999.0,    0.3,    0.3,    0.3,    0.2,    0.2,  999.0,  999.0,  999.0,    0.2,    0.2,    0.2,    0.1,    0.4,    0.4,    0.3,    0.0,    0.2,  999.0,  999.0,  999.0,  999.0,  999.0,  999.0,  999.0,  999.0
2006/06/28 23:40,    0.1,    0.0,   -0.0,   -0.0,   -0.0,   -0.1,   -0.1,   -0.1,   -0.0,   -0.1,   -0.1,   -0.1,   -0.1,   -0.1,   -0.1,   -0.0,   -0.1,    0.0,    0.0,    0.0,    0.1,    0.1,    0.0,    0.0,    0.1,    0.1,    0.1,    0.1,    0.2,    0.2,    0.2,    0.2,    0.3,   -0.0,    0.1,    0.2,    0.1,    0.2,    0.2,  999.0,  999.0,    0.1,    0.2,    0.2,    0.2,    0.1,    0.2,    0.1,    0.2,    0.2,    0.2,    0.1,    0.1,   -0.0,   -0.1,    0.0,   -0.0,   -0.0,    0.0,    0.2,  999.0,  999.0,  999.0,    0.1,    0.1,    0.0,    0.1,    0.1,    0.1,    0.0,    0.3,  999.0,  999.0,  999.0,  999.0,  999.0,  999.0,  999.0,  999.0,  999.0
2006/06/28 23:50,    0.0,    0.0,   -0.0,   -0.0,   -0.1,   -0.2,   -0.3,   -0.3,   -0.3,   -0.3,   -0.3,   -0.3,   -0.3,   -0.3,   -0.2,   -0.3,   -0.3,   -0.2,   -0.1,   -0.1,   -0.1,   -0.1,   -0.1,    0.0,    0.0,    0.1,    0.1,    0.1,    0.1,    0.1,    0.1,    0.1,    0.1,    0.0,  999.0,  999.0,  999.0,  999.0,    0.2,    0.3,    0.2,    0.1,    0.1,    0.1,    0.1,    0.0,    0.0,    0.0,    0.0,   -0.1,   -0.1,   -0.1,   -0.2,  999.0,   -0.1,   -0.2,   -0.3,   -0.3,  999.0,  999.0,  999.0,  999.0,  999.0,   -0.2,   -0.2,   -0.2,   -0.1,   -0.2,   -0.3,  999.0,  999.0,  999.0,  999.0,  999.0,  999.0,  999.0,  999.0,  999.0,  999.0,  999.0
